KJ6MC Weather Reports


Display with metric or nautical units.
time (UTC)temp
F
wind
direction
speed
MPH
gust
MPH
rain 1hr
in
rain 24hr
in
rain mn
in
humidity
%
barometer
mb
20260905171342 69 129 2.0 6.0 0.00 0.00 0.00 67 1014.2
20260905171332 69 132 1.0 5.0 0.00 0.00 0.00 67 1014.2
20260905171141 69 152 1.0 5.0 0.00 0.00 0.00 67 1014.2
20260905171041 69 200 1.0 5.0 0.00 0.00 0.00 67 1014.2
20260905170941 69 200 1.0 5.0 0.00 0.00 0.00 67 1014.2
20260905170839 69 200 1.0 5.0 0.00 0.00 0.00 67 1014.2
20260905170737 69 160 1.0 4.0 0.00 0.00 0.00 67 1014.2
20260905170714 69 197 1.0 4.0 0.00 0.00 0.00 67 1014.2
20260905170637 69 205 1.0 4.0 0.00 0.00 0.00 68 1014.2
20260905170535 68 144 1.0 4.0 0.00 0.00 0.00 68 1014.2
20260905170447 68 156 1.0 4.0 0.00 0.00 0.00 69 1014.2
20260905170431 68 143 1.0 4.0 0.00 0.00 0.00 68 1014.2
20260905170332 68 200 1.0 4.0 0.00 0.00 0.00 69 1014.2
20260905170231 68 148 1.0 4.0 0.00 0.00 0.00 69 1014.2
20260905170132 68 190 1.0 4.0 0.00 0.00 0.00 69 1014.2
20260905170029 68 203 1.0 4.0 0.00 0.00 0.00 70 1014.2
20260905165923 68 200 1.0 4.0 0.00 0.00 0.00 70 1014.2
20260905165824 68 183 1.0 4.0 0.00 0.00 0.00 71 1014.2
20260905165724 67 183 1.0 4.0 0.00 0.00 0.00 71 1014.2
20260905165706 67 183 1.0 4.0 0.00 0.00 0.00 70 1014.2
20260905165623 67 183 1.0 4.0 0.00 0.00 0.00 70 1014.2
20260905165523 67 187 1.0 4.0 0.00 0.00 0.00 71 1014.2
20260905165419 67 188 1.0 4.0 0.00 0.00 0.00 70 1014.2
20260905165317 67 205 0.0 4.0 0.00 0.00 0.00 71 1014.2
20260905165218 67 217 0.0 1.0 0.00 0.00 0.00 71 1014.2
20260905165156 67 217 0.0 1.0 0.00 0.00 0.00 72 1014.1
20260905165118 67 217 0.0 1.0 0.00 0.00 0.00 72 1014.1
20260905165017 67 217 0.0 1.0 0.00 0.00 0.00 71 1014.1
20260905164917 67 217 0.0 1.0 0.00 0.00 0.00 71 1014.1
20260905164816 67 217 0.0 1.0 0.00 0.00 0.00 72 1014.1
20260905164716 67 217 0.0 1.0 0.00 0.00 0.00 72 1014.1
20260905164650 67 217 0.0 1.0 0.00 0.00 0.00 72 1014.1
20260905164613 67 217 0.0 1.0 0.00 0.00 0.00 72 1014.1
20260905164512 67 217 1.0 4.0 0.00 0.00 0.00 72 1014.1
20260905164405 67 163 1.0 4.0 0.00 0.00 0.00 73 1014.1
20260905164306 67 164 1.0 4.0 0.00 0.00 0.00 72 1014.1
20260905164208 67 163 1.0 4.0 0.00 0.00 0.00 73 1014.2
20260905164145 67 164 1.0 4.0 0.00 0.00 0.00 72 1014.2
20260905164105 67 165 1.0 4.0 0.00 0.00 0.00 72 1014.2
20260905164009 66 163 1.0 4.0 0.00 0.00 0.00 72 1014.2
20260905163902 66 163 1.0 4.0 0.00 0.00 0.00 73 1014.2
20260905163800 66 163 1.0 4.0 0.00 0.00 0.00 72 1014.2
20260905163659 67 165 1.0 4.0 0.00 0.00 0.00 72 1014.2
20260905163639 67 165 1.0 4.0 0.00 0.00 0.00 71 1014.2
20260905163559 67 194 1.0 4.0 0.00 0.00 0.00 71 1014.2
20260905163458 67 201 1.0 3.0 0.00 0.00 0.00 73 1014.1
20260905163354 67 166 0.0 3.0 0.00 0.00 0.00 73 1014.2
20260905163254 66 148 0.0 3.0 0.00 0.00 0.00 73 1014.2
20260905163153 66 218 0.0 1.0 0.00 0.00 0.00 74 1014.2
20260905163132 66 124 0.0 1.0 0.00 0.00 0.00 75 1014.2
20260905163053 66 111 0.0 2.0 0.00 0.00 0.00 75 1014.2
20260905162954 65 226 0.0 2.0 0.00 0.00 0.00 76 1014.1
20260905162853 65 226 0.0 2.0 0.00 0.00 0.00 76 1014.1
20260905162752 65 226 0.0 2.0 0.00 0.00 0.00 76 1014.1
20260905162652 65 226 1.0 2.0 0.00 0.00 0.00 76 1014.1
20260905162626 65 226 1.0 2.0 0.00 0.00 0.00 77 1014.1
20260905162550 65 226 1.0 3.0 0.00 0.00 0.00 77 1014.1
20260905162447 64 226 1.0 4.0 0.00 0.00 0.00 77 1014.2
20260905162343 64 226 1.0 4.0 0.00 0.00 0.00 77 1014.2
20260905162242 64 226 2.0 5.0 0.00 0.00 0.00 77 1014.2
20260905162120 64 226 2.0 5.0 0.00 0.00 0.00 77 1014.2
20260905162041 64 229 2.0 5.0 0.00 0.00 0.00 78 1014.2
20260905161941 64 205 2.0 5.0 0.00 0.00 0.00 78 1014.2
20260905161842 63 113 2.0 5.0 0.00 0.00 0.00 79 1014.1
20260905161740 63 190 2.0 5.0 0.00 0.00 0.00 78 1014.2
20260905161614 63 233 1.0 5.0 0.00 0.00 0.00 78 1014.2
20260905161537 63 219 1.0 5.0 0.00 0.00 0.00 78 1014.2
20260905161435 63 200 2.0 5.0 0.00 0.00 0.00 78 1014.1
20260905161330 63 219 2.0 5.0 0.00 0.00 0.00 78 1014.1
20260905161230 63 215 2.0 5.0 0.00 0.00 0.00 78 1014.2
20260905161129 63 231 2.0 5.0 0.00 0.00 0.00 79 1014.1
20260905161109 63 230 2.0 5.0 0.00 0.00 0.00 79 1014.1
20260905161029 63 231 2.0 5.0 0.00 0.00 0.00 79 1014.1
20260905160929 62 225 2.0 5.0 0.00 0.00 0.00 80 1014.1
20260905160827 62 225 2.0 5.0 0.00 0.00 0.00 80 1014.2
20260905160823 62 225 2.0 5.0 0.00 0.00 0.00 80 1014.2
20260905160723 62 225 2.0 5.0 0.00 0.00 0.00 80 1014.2
20260905160714 62 225 2.0 5.0 0.00 0.00 0.00 80 1014.2
20260905160523 62 225 2.0 5.0 0.00 0.00 0.00 79 1014.2
20260905160424 62 239 2.0 5.0 0.00 0.00 0.00 79 1014.2
20260905160331 63 236 1.0 4.0 0.00 0.00 0.00 78 1014.3
20260905160319 62 235 1.0 4.0 0.00 0.00 0.00 79 1014.2
20260905160229 62 230 2.0 4.0 0.00 0.00 0.00 79 1014.2
20260905160220 62 236 2.0 4.0 0.00 0.00 0.00 78 1014.3
20260905160019 62 235 1.0 4.0 0.00 0.00 0.00 79 1014.3
20260905155917 62 180 2.0 4.0 0.00 0.00 0.00 80 1014.3
20260905155811 62 161 2.0 4.0 0.00 0.00 0.00 80 1014.3
20260905155712 62 161 2.0 4.0 0.00 0.00 0.00 80 1014.3
20260905155611 62 129 2.0 4.0 0.00 0.00 0.00 80 1014.3
20260905155550 62 129 2.0 4.0 0.00 0.00 0.00 80 1014.3
20260905155511 62 129 2.0 4.0 0.00 0.00 0.00 79 1014.3
20260905155412 62 216 2.0 4.0 0.00 0.00 0.00 79 1014.3
20260905155313 62 211 2.0 4.0 0.00 0.00 0.00 81 1014.4
20260905155309 62 186 2.0 4.0 0.00 0.00 0.00 80 1014.3
20260905155210 62 158 2.0 4.0 0.00 0.00 0.00 81 1014.3
20260905155155 62 207 2.0 4.0 0.00 0.00 0.00 81 1014.4
20260905155007 62 234 2.0 4.0 0.00 0.00 0.00 81 1014.3
20260905154906 62 228 1.0 4.0 0.00 0.00 0.00 81 1014.3
20260905154802 62 212 1.0 4.0 0.00 0.00 0.00 81 1014.3
20260905154709 62 238 1.0 4.0 0.00 0.00 0.00 81 1014.3
20260905154601 61 221 1.0 4.0 0.00 0.00 0.00 81 1014.2
20260905154538 61 224 1.0 3.0 0.00 0.00 0.00 81 1014.2
20260905154503 61 224 1.0 3.0 0.00 0.00 0.00 82 1014.3
20260905154359 61 217 1.0 3.0 0.00 0.00 0.00 81 1014.2
20260905154301 61 229 1.0 3.0 0.00 0.00 0.00 81 1014.2
20260905154251 61 225 1.0 3.0 0.00 0.00 0.00 81 1014.3
20260905154157 61 229 1.0 3.0 0.00 0.00 0.00 80 1014.3
20260905154142 61 226 1.0 3.0 0.00 0.00 0.00 81 1014.3
20260905153955 61 167 1.0 3.0 0.00 0.00 0.00 82 1014.3
20260905153853 61 131 1.0 3.0 0.00 0.00 0.00 82 1014.3
20260905153751 61 139 1.0 3.0 0.00 0.00 0.00 81 1014.3
20260905153647 61 213 1.0 3.0 0.00 0.00 0.00 82 1014.2
20260905153532 60 146 1.0 3.0 0.00 0.00 0.00 82 1014.2
20260905153447 60 146 1.0 3.0 0.00 0.00 0.00 82 1014.3
20260905153347 60 164 1.0 3.0 0.00 0.00 0.00 83 1014.3
20260905153248 60 148 1.0 3.0 0.00 0.00 0.00 83 1014.3
20260905153145 60 148 1.0 3.0 0.00 0.00 0.00 82 1014.3
20260905153031 60 148 1.0 3.0 0.00 0.00 0.00 82 1014.3
20260905152943 60 148 1.0 3.0 0.00 0.00 0.00 82 1014.3
20260905152841 60 186 1.0 2.0 0.00 0.00 0.00 82 1014.3
20260905152738 60 150 1.0 2.0 0.00 0.00 0.00 82 1014.3
20260905152635 59 217 1.0 2.0 0.00 0.00 0.00 82 1014.3
20260905152529 59 158 1.0 2.0 0.00 0.00 0.00 83 1014.3
20260905152435 59 115 1.0 2.0 0.00 0.00 0.00 83 1014.2
20260905152335 59 117 1.0 2.0 0.00 0.00 0.00 82 1014.3
20260905152237 59 122 0.0 2.0 0.00 0.00 0.00 82 1014.2
20260905152134 59 218 0.0 2.0 0.00 0.00 0.00 82 1014.2
20260905152033 59 172 0.0 2.0 0.00 0.00 0.00 83 1014.2
20260905151829 59 129 0.0 2.0 0.00 0.00 0.00 83 1014.3
20260905151728 59 129 0.0 2.0 0.00 0.00 0.00 83 1014.3
20260905151627 59 120 0.0 2.0 0.00 0.00 0.00 83 1014.3
20260905151527 59 233 0.0 2.0 0.00 0.00 0.00 83 1014.2
20260905151425 59 233 0.0 2.0 0.00 0.00 0.00 83 1014.2
20260905151323 59 233 0.0 1.0 0.00 0.00 0.00 83 1014.2
20260905151224 59 233 0.0 1.0 0.00 0.00 0.00 83 1014.2
20260905151121 59 233 0.0 1.0 0.00 0.00 0.00 82 1014.2
20260905151029 59 233 0.0 1.0 0.00 0.00 0.00 82 1014.2
20260905151022 59 233 0.0 1.0 0.00 0.00 0.00 83 1014.2
20260905150919 59 134 0.0 1.0 0.00 0.00 0.00 83 1014.1
20260905150818 59 134 0.0 1.0 0.00 0.00 0.00 83 1014.1
20260905150714 59 134 0.0 1.0 0.00 0.00 0.00 83 1014.1
20260905150612 58 134 1.0 2.0 0.00 0.00 0.00 83 1014.1
20260905150511 58 134 1.0 2.0 0.00 0.00 0.00 83 1014.1
20260905150412 58 134 1.0 2.0 0.00 0.00 0.00 83 1014.1
20260905150311 58 134 0.0 2.0 0.00 0.00 0.00 83 1014.1
20260905150208 58 134 1.0 2.0 0.00 0.00 0.00 84 1014.1
20260905150108 58 103 1.0 2.0 0.00 0.00 0.00 83 1014.1
20260905150007 58 103 1.0 2.0 0.00 0.00 0.00 84 1014.1
20260905145908 58 103 1.0 2.0 0.00 0.00 0.00 84 1014.1
20260905145805 58 103 1.0 2.0 0.00 0.00 0.00 84 1014.1
20260905145705 58 103 1.0 2.0 0.00 0.00 0.00 84 1014.1
20260905145559 58 103 1.0 2.0 0.00 0.00 0.00 84 1014.1
20260905145526 57 105 1.0 2.0 0.00 0.00 0.00 85 1014.1
20260905145500 57 114 0.0 1.0 0.00 0.00 0.00 85 1014.1
20260905145359 57 115 0.0 1.0 0.00 0.00 0.00 85 1014.1
20260905145259 57 116 1.0 2.0 0.00 0.00 0.00 85 1014.1
20260905145203 57 116 1.0 2.0 0.00 0.00 0.00 85 1014.1
20260905145057 57 116 1.0 2.0 0.00 0.00 0.00 85 1014.1
20260905145027 57 113 1.0 3.0 0.00 0.00 0.00 86 1014.1
20260905144957 56 113 1.0 3.0 0.00 0.00 0.00 86 1014.1
20260905144855 56 113 1.0 3.0 0.00 0.00 0.00 86 1014.1
20260905144755 56 113 1.0 3.0 0.00 0.00 0.00 86 1014.1
20260905144654 56 113 1.0 3.0 0.00 0.00 0.00 87 1014.1
20260905144552 56 113 2.0 3.0 0.00 0.00 0.00 87 1014.1
20260905144525 56 113 2.0 3.0 0.00 0.00 0.00 86 1014.1
20260905144452 56 113 2.0 3.0 0.00 0.00 0.00 86 1014.2
20260905144349 56 113 2.0 3.0 0.00 0.00 0.00 86 1014.2
20260905144247 55 113 2.0 3.0 0.00 0.00 0.00 86 1014.2
20260905144143 55 107 1.0 3.0 0.00 0.00 0.00 86 1014.2
20260905144042 55 107 1.0 3.0 0.00 0.00 0.00 86 1014.2
20260905144025 55 97 1.0 3.0 0.00 0.00 0.00 86 1014.2
20260905143941 55 113 1.0 3.0 0.00 0.00 0.00 87 1014.2
20260905143841 55 103 1.0 3.0 0.00 0.00 0.00 87 1014.1
20260905143742 55 102 1.0 2.0 0.00 0.00 0.00 87 1014.1
20260905143640 55 114 1.0 2.0 0.00 0.00 0.00 88 1014.1
20260905143539 55 110 0.0 2.0 0.00 0.00 0.00 88 1014.1
20260905143524 55 110 0.0 2.0 0.00 0.00 0.00 89 1014.1
20260905143437 55 111 0.0 2.0 0.00 0.00 0.00 89 1014.1
20260905143337 55 125 0.0 1.0 0.00 0.00 0.00 89 1014.1
20260905143236 54 103 0.0 1.0 0.00 0.00 0.00 89 1014.1
20260905143136 54 103 0.0 1.0 0.00 0.00 0.00 89 1014.1
20260905143025 54 103 0.0 1.0 0.00 0.00 0.00 90 1014.1
20260905142934 54 103 0.0 1.0 0.00 0.00 0.00 90 1014.1
20260905142831 54 103 0.0 1.0 0.00 0.00 0.00 91 1014.1
20260905142752 53 103 0.0 1.0 0.00 0.00 0.00 91 1014.0
20260905142730 54 103 0.0 1.0 0.00 0.00 0.00 91 1014.0
20260905142639 53 103 0.0 1.0 0.00 0.00 0.00 91 1014.0
20260905142523 53 103 0.0 1.0 0.00 0.00 0.00 91 1014.0
20260905142423 53 103 0.0 1.0 0.00 0.00 0.00 91 1014.0
20260905142324 53 103 0.0 1.0 0.00 0.00 0.00 90 1014.1
20260905142224 53 103 0.0 2.0 0.00 0.00 0.00 90 1014.1
20260905142124 53 103 1.0 2.0 0.00 0.00 0.00 90 1014.1
20260905142021 53 103 1.0 2.0 0.00 0.00 0.00 91 1014.0
20260905141921 53 103 1.0 2.0 0.00 0.00 0.00 91 1014.1
20260905141819 53 103 1.0 2.0 0.00 0.00 0.00 91 1014.0
20260905141718 53 103 1.0 2.0 0.00 0.00 0.00 91 1014.0
20260905141612 53 103 1.0 2.0 0.00 0.00 0.00 91 1014.0
20260905141520 53 103 1.0 2.0 0.00 0.00 0.00 91 1014.0
20260905141511 53 103 1.0 2.0 0.00 0.00 0.00 91 1013.9
20260905141412 53 103 1.0 2.0 0.00 0.00 0.00 91 1013.9
20260905141311 53 103 0.0 2.0 0.00 0.00 0.00 91 1013.9
20260905141212 53 103 0.0 2.0 0.00 0.00 0.00 91 1013.9
20260905141108 53 103 0.0 2.0 0.00 0.00 0.00 91 1013.9
20260905141005 53 103 0.0 1.0 0.00 0.00 0.00 91 1013.9
20260905140905 53 103 0.0 1.0 0.00 0.00 0.00 91 1013.9
20260905140803 53 103 0.0 1.0 0.00 0.00 0.00 91 1013.8
20260905140706 53 103 0.0 1.0 0.00 0.00 0.00 91 1013.9
20260905140603 53 103 0.0 1.0 0.00 0.00 0.00 91 1013.9
20260905140518 53 103 0.0 1.0 0.00 0.00 0.00 91 1013.9
20260905140502 53 103 0.0 1.0 0.00 0.00 0.00 91 1013.8
20260905140401 53 103 0.0 1.0 0.00 0.00 0.00 91 1013.8
20260905140300 53 103 0.0 1.0 0.00 0.00 0.00 91 1013.8
20260905140159 53 103 0.0 1.0 0.00 0.00 0.00 91 1013.8
20260905140056 53 103 0.0 1.0 0.00 0.00 0.00 91 1013.9
20260905140012 53 103 0.0 1.0 0.00 0.00 0.00 91 1013.8
20260905135955 53 103 0.0 1.0 0.00 0.00 0.00 91 1013.8
20260905135855 53 103 0.0 1.0 0.00 0.00 0.00 91 1013.9
20260905135755 53 103 0.0 1.0 0.00 0.00 0.00 91 1013.8
20260905135651 53 103 0.0 1.0 0.00 0.00 0.00 91 1013.9
20260905135552 53 103 0.0 1.0 0.00 0.00 0.00 91 1013.9
20260905135506 53 103 0.0 1.0 0.00 0.00 0.00 91 1013.9
20260905135449 53 103 0.0 2.0 0.00 0.00 0.00 91 1013.9
20260905135349 53 103 0.0 2.0 0.00 0.00 0.00 91 1013.8
20260905135248 53 103 0.0 2.0 0.00 0.00 0.00 91 1013.9
20260905135145 53 103 1.0 2.0 0.00 0.00 0.00 91 1013.8
20260905135045 53 103 1.0 2.0 0.00 0.00 0.00 91 1013.8
20260905134943 53 103 1.0 2.0 0.00 0.00 0.00 91 1013.8
20260905134843 53 103 1.0 2.0 0.00 0.00 0.00 91 1013.8
20260905134742 53 103 1.0 3.0 0.00 0.00 0.00 91 1013.8
20260905134640 53 103 1.0 3.0 0.00 0.00 0.00 91 1013.8
20260905134537 53 103 1.0 3.0 0.00 0.00 0.00 91 1013.8
20260905134454 53 115 1.0 3.0 0.00 0.00 0.00 91 1013.8
20260905134438 53 116 1.0 3.0 0.00 0.00 0.00 91 1013.8
20260905134335 53 119 1.0 3.0 0.00 0.00 0.00 91 1013.8
20260905134235 53 110 1.0 3.0 0.00 0.00 0.00 91 1013.8
20260905134133 53 107 1.0 3.0 0.00 0.00 0.00 91 1013.8
20260905134028 53 108 1.0 3.0 0.00 0.00 0.00 91 1013.8
20260905133952 53 102 1.0 3.0 0.00 0.00 0.00 91 1013.8
20260905133927 53 110 1.0 3.0 0.00 0.00 0.00 91 1013.8
20260905133828 53 108 1.0 3.0 0.00 0.00 0.00 91 1013.7
20260905133728 53 101 1.0 2.0 0.00 0.00 0.00 91 1013.7
20260905133658 52 115 1.0 2.0 0.00 0.00 0.00 91 1013.7
20260905133627 53 115 1.0 2.0 0.00 0.00 0.00 91 1013.7
20260905133552 52 115 1.0 2.0 0.00 0.00 0.00 91 1013.7
20260905133425 52 116 1.0 2.0 0.00 0.00 0.00 91 1013.7
20260905133325 52 116 1.0 2.0 0.00 0.00 0.00 91 1013.7
20260905133225 52 116 0.0 2.0 0.00 0.00 0.00 91 1013.7
20260905133157 52 110 0.0 2.0 0.00 0.00 0.00 92 1013.7
20260905133122 52 115 0.0 2.0 0.00 0.00 0.00 92 1013.7
20260905133049 52 104 0.0 2.0 0.00 0.00 0.00 92 1013.7
20260905132915 52 110 0.0 2.0 0.00 0.00 0.00 92 1013.7
20260905132815 52 110 0.0 2.0 0.00 0.00 0.00 92 1013.7
20260905132717 52 110 0.0 1.0 0.00 0.00 0.00 92 1013.7
20260905132615 52 110 0.0 1.0 0.00 0.00 0.00 92 1013.7
20260905132509 52 110 0.0 1.0 0.00 0.00 0.00 91 1013.7
20260905132430 52 110 0.0 1.0 0.00 0.00 0.00 91 1013.7
20260905132410 52 110 0.0 0.0 0.00 0.00 0.00 91 1013.7
20260905132309 52 110 0.0 0.0 0.00 0.00 0.00 91 1013.7
20260905132210 52 110 0.0 0.0 0.00 0.00 0.00 91 1013.6
20260905132110 52 110 0.0 0.0 0.00 0.00 0.00 91 1013.6
20260905132009 52 110 0.0 0.0 0.00 0.00 0.00 91 1013.7
20260905131908 52 110 0.0 1.0 0.00 0.00 0.00 91 1013.7
20260905131808 53 110 0.0 1.0 0.00 0.00 0.00 91 1013.6
20260905131706 53 110 0.0 1.0 0.00 0.00 0.00 91 1013.6
20260905131603 53 110 0.0 1.0 0.00 0.00 0.00 91 1013.6
20260905131501 53 110 0.0 1.0 0.00 0.00 0.00 91 1013.7
20260905131431 53 110 0.0 1.0 0.00 0.00 0.00 91 1013.7
20260905131402 53 110 0.0 1.0 0.00 0.00 0.00 91 1013.6
20260905131301 53 110 0.0 1.0 0.00 0.00 0.00 91 1013.6
20260905131204 53 110 0.0 1.0 0.00 0.00 0.00 91 1013.6
20260905131131 53 110 0.0 1.0 0.00 0.00 0.00 91 1013.6
20260905131057 53 110 0.0 1.0 0.00 0.00 0.00 91 1013.6
20260905131035 53 110 0.0 1.0 0.00 0.00 0.00 91 1013.6
20260905130855 53 110 0.0 1.0 0.00 0.00 0.00 91 1013.6
20260905130756 53 110 0.0 1.0 0.00 0.00 0.00 91 1013.7
20260905130654 53 110 0.0 2.0 0.00 0.00 0.00 91 1013.6
20260905130625 53 110 1.0 2.0 0.00 0.00 0.00 91 1013.6
20260905130551 53 110 0.0 2.0 0.00 0.00 0.00 91 1013.6
20260905130517 53 110 1.0 2.0 0.00 0.00 0.00 91 1013.6
20260905130349 53 110 1.0 2.0 0.00 0.00 0.00 91 1013.6
20260905130252 53 110 1.0 2.0 0.00 0.00 0.00 91 1013.6
20260905130148 53 110 1.0 2.0 0.00 0.00 0.00 91 1013.5
20260905130045 53 110 1.0 2.0 0.00 0.00 0.00 91 1013.5
20260905125943 53 110 1.0 2.0 0.00 0.00 0.00 92 1013.6
20260905125843 53 110 1.0 2.0 0.00 0.00 0.00 92 1013.6
20260905125744 53 110 1.0 2.0 0.00 0.00 0.00 92 1013.6
20260905125642 53 110 1.0 2.0 0.00 0.00 0.00 92 1013.6
20260905125539 53 110 0.0 2.0 0.00 0.00 0.00 92 1013.6
20260905125435 53 110 0.0 2.0 0.00 0.00 0.00 92 1013.6
20260905125333 53 110 0.0 2.0 0.00 0.00 0.00 92 1013.6
20260905125233 53 110 0.0 1.0 0.00 0.00 0.00 92 1013.6
20260905125133 53 110 0.0 1.0 0.00 0.00 0.00 92 1013.6
20260905125119 53 110 0.0 1.0 0.00 0.00 0.00 92 1013.5
20260905125033 53 110 0.0 1.0 0.00 0.00 0.00 92 1013.5
20260905124959 53 110 0.0 1.0 0.00 0.00 0.00 92 1013.5
20260905124831 53 110 0.0 1.0 0.00 0.00 0.00 92 1013.5
20260905124732 53 110 0.0 0.0 0.00 0.00 0.00 92 1013.5
20260905124629 53 110 0.0 0.0 0.00 0.00 0.00 91 1013.5
20260905124527 53 110 0.0 1.0 0.00 0.00 0.00 92 1013.5
20260905124426 53 110 0.0 1.0 0.00 0.00 0.00 92 1013.5
20260905124325 53 110 0.0 1.0 0.00 0.00 0.00 92 1013.5
20260905124227 53 110 0.0 1.0 0.00 0.00 0.00 91 1013.5
20260905124123 53 110 0.0 1.0 0.00 0.00 0.00 91 1013.5
20260905124021 53 110 0.0 1.0 0.00 0.00 0.00 91 1013.5
20260905123915 53 110 0.0 1.0 0.00 0.00 0.00 92 1013.5
20260905123815 53 110 0.0 1.0 0.00 0.00 0.00 92 1013.6
20260905123717 53 110 0.0 1.0 0.00 0.00 0.00 92 1013.6
20260905123615 53 110 0.0 1.0 0.00 0.00 0.00 92 1013.6
20260905123515 53 110 0.0 1.0 0.00 0.00 0.00 92 1013.6
20260905123411 53 110 0.0 0.0 0.00 0.00 0.00 92 1013.6
20260905123309 53 110 0.0 1.0 0.00 0.00 0.00 92 1013.6
20260905123210 53 110 0.0 1.0 0.00 0.00 0.00 92 1013.6
20260905123109 53 110 0.0 1.0 0.00 0.00 0.00 92 1013.6
20260905123010 53 110 0.0 1.0 0.00 0.00 0.00 91 1013.6
20260905122907 53 110 0.0 1.0 0.00 0.00 0.00 91 1013.6
20260905122807 53 110 0.0 1.0 0.00 0.00 0.00 91 1013.6
20260905122709 53 110 0.0 1.0 0.00 0.00 0.00 91 1013.6
20260905122606 53 110 0.0 1.0 0.00 0.00 0.00 91 1013.6
20260905122504 53 110 0.0 1.0 0.00 0.00 0.00 91 1013.6
20260905122401 53 110 0.0 1.0 0.00 0.00 0.00 91 1013.6
20260905122318 53 110 0.0 1.0 0.00 0.00 0.00 91 1013.6
20260905122302 53 110 0.0 1.0 0.00 0.00 0.00 91 1013.6
20260905122203 53 110 0.0 1.0 0.00 0.00 0.00 91 1013.6
20260905122059 53 110 0.0 1.0 0.00 0.00 0.00 91 1013.6
20260905121957 53 110 0.0 1.0 0.00 0.00 0.00 91 1013.6
20260905121858 53 110 0.0 1.0 0.00 0.00 0.00 91 1013.6
20260905121812 53 110 0.0 1.0 0.00 0.00 0.00 92 1013.6
20260905121756 53 110 0.0 1.0 0.00 0.00 0.00 92 1013.6
20260905121655 53 110 0.0 1.0 0.00 0.00 0.00 92 1013.6
20260905121552 53 110 0.0 1.0 0.00 0.00 0.00 92 1013.5
20260905121451 53 110 0.0 1.0 0.00 0.00 0.00 92 1013.6
20260905121349 53 110 0.0 1.0 0.00 0.00 0.00 92 1013.6
20260905121306 53 110 0.0 1.0 0.00 0.00 0.00 92 1013.6
20260905121251 53 110 0.0 1.0 0.00 0.00 0.00 92 1013.6
20260905121149 53 110 0.0 1.0 0.00 0.00 0.00 92 1013.6
20260905121047 53 110 0.0 1.0 0.00 0.00 0.00 91 1013.6
20260905120949 53 110 0.0 1.0 0.00 0.00 0.00 91 1013.6
20260905120840 53 110 0.0 0.0 0.00 0.00 0.00 91 1013.6
20260905120805 53 110 0.0 0.0 0.00 0.00 0.00 91 1013.6
20260905120740 53 110 0.0 0.0 0.00 0.00 0.00 91 1013.6
20260905120639 53 110 0.0 0.0 0.00 0.00 0.00 91 1013.6
20260905120540 53 110 0.0 1.0 0.00 0.00 0.00 91 1013.6
20260905120439 53 110 0.0 1.0 0.00 0.00 0.00 91 1013.6
20260905120340 53 110 0.0 1.0 0.00 0.00 0.00 91 1013.6
20260905120305 53 110 0.0 1.0 0.00 0.00 0.00 91 1013.6
20260905120238 53 110 0.0 1.0 0.00 0.00 0.00 91 1013.6
20260905120138 53 110 0.0 1.0 0.00 0.00 0.00 91 1013.6
20260905120036 53 110 0.0 1.0 0.00 0.00 0.00 91 1013.6
20260905115933 53 110 0.0 1.0 0.00 0.00 0.00 91 1013.6
20260905115803 53 110 0.0 1.0 0.00 0.00 0.00 91 1013.6
20260905115732 53 110 0.0 1.0 0.00 0.00 0.00 91 1013.6
20260905115632 53 110 0.0 1.0 0.00 0.00 0.00 91 1013.6
20260905115530 53 110 0.0 0.0 0.00 0.00 0.00 91 1013.6
20260905115427 53 110 0.0 0.0 0.00 0.00 0.00 91 1013.6
20260905115327 53 110 0.0 0.0 0.00 0.00 0.00 91 1013.6
20260905115300 53 110 0.0 0.0 0.00 0.00 0.00 91 1013.6
20260905115226 53 110 0.0 0.0 0.00 0.00 0.00 91 1013.6
20260905115125 53 110 0.0 1.0 0.00 0.00 0.00 91 1013.6
20260905115024 53 110 0.0 1.0 0.00 0.00 0.00 91 1013.6
20260905114921 53 110 0.0 1.0 0.00 0.00 0.00 91 1013.5
20260905114822 53 110 0.0 1.0 0.00 0.00 0.00 91 1013.6
20260905114800 53 110 0.0 1.0 0.00 0.00 0.00 91 1013.6
20260905114720 53 110 0.0 1.0 0.00 0.00 0.00 91 1013.6
20260905114618 53 110 0.0 1.0 0.00 0.00 0.00 91 1013.6
20260905114517 53 110 0.0 1.0 0.00 0.00 0.00 91 1013.5
20260905114416 53 110 0.0 1.0 0.00 0.00 0.00 91 1013.5
20260905114314 53 110 0.0 1.0 0.00 0.00 0.00 91 1013.5
20260905114300 53 110 0.0 1.0 0.00 0.00 0.00 91 1013.5
20260905114214 53 110 0.0 1.0 0.00 0.00 0.00 91 1013.5
20260905114113 53 110 0.0 1.0 0.00 0.00 0.00 91 1013.5
20260905114012 53 110 0.0 1.0 0.00 0.00 0.00 91 1013.5
20260905113909 53 110 0.0 1.0 0.00 0.00 0.00 91 1013.5
20260905113811 53 110 0.0 1.0 0.00 0.00 0.00 91 1013.5
20260905113801 53 110 0.0 1.0 0.00 0.00 0.00 91 1013.5
20260905113708 53 110 0.0 1.0 0.00 0.00 0.00 91 1013.5
20260905113607 53 110 0.0 1.0 0.00 0.00 0.00 91 1013.5
20260905113505 53 110 0.0 1.0 0.00 0.00 0.00 91 1013.5
20260905113403 53 110 0.0 1.0 0.00 0.00 0.00 91 1013.5
20260905113259 53 110 0.0 1.0 0.00 0.00 0.00 91 1013.5
20260905113202 54 110 0.0 1.0 0.00 0.00 0.00 91 1013.4
20260905113058 54 110 0.0 1.0 0.00 0.00 0.00 91 1013.5
20260905112957 54 110 0.0 1.0 0.00 0.00 0.00 91 1013.5
20260905112857 54 110 0.0 1.0 0.00 0.00 0.00 91 1013.5
20260905112756 54 110 0.0 1.0 0.00 0.00 0.00 91 1013.5
20260905112657 54 110 0.0 1.0 0.00 0.00 0.00 91 1013.5
20260905112555 54 110 0.0 1.0 0.00 0.00 0.00 91 1013.5
20260905112453 54 110 0.0 1.0 0.00 0.00 0.00 91 1013.6
20260905112352 54 110 0.0 1.0 0.00 0.00 0.00 91 1013.6
20260905112252 54 110 0.0 1.0 0.00 0.00 0.00 90 1013.6
20260905112150 54 110 0.0 1.0 0.00 0.00 0.00 90 1013.6
20260905112049 54 110 0.0 0.0 0.00 0.00 0.00 90 1013.6
20260905111948 54 110 0.0 0.0 0.00 0.00 0.00 90 1013.6
20260905111845 54 110 0.0 1.0 0.00 0.00 0.00 90 1013.6
20260905111747 54 110 0.0 1.0 0.00 0.00 0.00 90 1013.6
20260905111643 54 110 0.0 1.0 0.00 0.00 0.00 90 1013.7
20260905111544 54 110 0.0 1.0 0.00 0.00 0.00 90 1013.6
20260905111442 54 110 0.0 1.0 0.00 0.00 0.00 90 1013.7
20260905111339 54 110 0.0 1.0 0.00 0.00 0.00 90 1013.7
20260905111236 54 110 0.0 1.0 0.00 0.00 0.00 90 1013.7
20260905111133 54 110 0.0 1.0 0.00 0.00 0.00 90 1013.7
20260905111034 54 110 0.0 1.0 0.00 0.00 0.00 90 1013.7
20260905110933 54 110 0.0 1.0 0.00 0.00 0.00 90 1013.7
20260905110833 54 110 0.0 1.0 0.00 0.00 0.00 90 1013.8
20260905110733 54 110 0.0 1.0 0.00 0.00 0.00 90 1013.7
20260905110631 54 110 0.0 1.0 0.00 0.00 0.00 90 1013.7
20260905110531 54 110 0.0 2.0 0.00 0.00 0.00 90 1013.7
20260905110429 54 110 0.0 2.0 0.00 0.00 0.00 90 1013.8
20260905110327 54 110 1.0 2.0 0.00 0.00 0.00 90 1013.8
20260905110305 54 110 1.0 2.0 0.00 0.00 0.00 90 1013.8
20260905110224 54 110 1.0 2.0 0.00 0.00 0.00 90 1013.8
20260905110123 54 110 1.0 2.0 0.00 0.00 0.00 90 1013.8
20260905110024 54 110 1.0 2.0 0.00 0.00 0.00 90 1013.8
20260905110008 54 110 1.0 2.0 0.00 0.00 0.00 90 1013.8
20260905105924 54 110 1.0 2.0 0.00 0.00 0.00 90 1013.8
20260905105900 54 110 1.0 2.0 0.00 0.00 0.00 90 1013.7
20260905105722 54 110 1.0 2.0 0.00 0.00 0.00 90 1013.8
20260905105621 54 110 1.0 2.0 0.00 0.00 0.00 90 1013.8
20260905105521 54 110 1.0 2.0 0.00 0.00 0.00 90 1013.8
20260905105421 54 110 1.0 2.0 0.00 0.00 0.00 90 1013.8
20260905105321 54 108 1.0 2.0 0.00 0.00 0.00 90 1013.7
20260905105249 54 108 1.0 2.0 0.00 0.00 0.00 90 1013.7
20260905105220 54 107 1.0 2.0 0.00 0.00 0.00 90 1013.7
20260905105117 54 108 1.0 2.0 0.00 0.00 0.00 90 1013.7
20260905105015 54 107 1.0 2.0 0.00 0.00 0.00 90 1013.7
20260905104916 54 107 1.0 2.0 0.00 0.00 0.00 90 1013.7
20260905104815 54 107 1.0 2.0 0.00 0.00 0.00 90 1013.8
20260905104749 54 108 1.0 2.0 0.00 0.00 0.00 90 1013.8
20260905104716 54 107 1.0 2.0 0.00 0.00 0.00 90 1013.8
20260905104615 54 112 1.0 2.0 0.00 0.00 0.00 90 1013.8
20260905104513 54 102 1.0 2.0 0.00 0.00 0.00 90 1013.8
20260905104413 55 110 1.0 2.0 0.00 0.00 0.00 89 1013.7
20260905104314 55 113 1.0 2.0 0.00 0.00 0.00 89 1013.7
20260905104248 55 113 1.0 2.0 0.00 0.00 0.00 89 1013.7
20260905104214 55 115 1.0 2.0 0.00 0.00 0.00 89 1013.7
20260905104113 55 114 1.0 2.0 0.00 0.00 0.00 89 1013.7
20260905104012 55 101 1.0 2.0 0.00 0.00 0.00 89 1013.7
20260905103912 55 115 1.0 3.0 0.00 0.00 0.00 89 1013.7
20260905103811 55 123 1.0 3.0 0.00 0.00 0.00 89 1013.7
20260905103746 55 110 1.0 3.0 0.00 0.00 0.00 89 1013.7
20260905103709 55 112 1.0 3.0 0.00 0.00 0.00 89 1013.7
20260905103608 55 111 2.0 3.0 0.00 0.00 0.00 89 1013.7
20260905103507 55 112 2.0 3.0 0.00 0.00 0.00 89 1013.7
20260905103408 55 112 2.0 3.0 0.00 0.00 0.00 89 1013.7
20260905103308 55 106 1.0 3.0 0.00 0.00 0.00 90 1013.7
20260905103247 55 106 1.0 3.0 0.00 0.00 0.00 90 1013.7
20260905103208 55 105 1.0 3.0 0.00 0.00 0.00 90 1013.7
20260905103107 55 89 1.0 3.0 0.00 0.00 0.00 90 1013.7
20260905103005 55 127 1.0 3.0 0.00 0.00 0.00 90 1013.7
20260905102906 54 108 1.0 3.0 0.00 0.00 0.00 90 1013.7
20260905102803 55 108 1.0 3.0 0.00 0.00 0.00 90 1013.7
20260905102740 54 109 1.0 3.0 0.00 0.00 0.00 90 1013.7
20260905102705 54 96 0.0 3.0 0.00 0.00 0.00 90 1013.7
20260905102601 54 114 0.0 2.0 0.00 0.00 0.00 90 1013.7
20260905102501 54 117 0.0 2.0 0.00 0.00 0.00 90 1013.7
20260905102400 54 130 0.0 1.0 0.00 0.00 0.00 90 1013.7
20260905102240 54 129 0.0 1.0 0.00 0.00 0.00 90 1013.8
20260905102202 54 129 0.0 1.0 0.00 0.00 0.00 90 1013.8
20260905102055 54 129 0.0 1.0 0.00 0.00 0.00 90 1013.8
20260905101956 54 130 0.0 1.0 0.00 0.00 0.00 90 1013.8
20260905101853 54 129 0.0 1.0 0.00 0.00 0.00 90 1013.8
20260905101741 54 129 0.0 1.0 0.00 0.00 0.00 90 1013.8
20260905101651 54 129 0.0 0.0 0.00 0.00 0.00 90 1013.8
20260905101548 54 130 0.0 0.0 0.00 0.00 0.00 90 1013.8
20260905101446 54 129 0.0 0.0 0.00 0.00 0.00 90 1013.8
20260905101343 54 129 0.0 0.0 0.00 0.00 0.00 90 1013.8
20260905101245 54 129 0.0 0.0 0.00 0.00 0.00 90 1013.8
20260905101144 54 129 0.0 0.0 0.00 0.00 0.00 90 1013.8
20260905101044 54 129 0.0 0.0 0.00 0.00 0.00 90 1013.7
20260905100939 54 129 0.0 0.0 0.00 0.00 0.00 89 1013.8
20260905100837 54 130 0.0 0.0 0.00 0.00 0.00 89 1013.8
20260905100744 54 130 0.0 0.0 0.00 0.00 0.00 89 1013.8
20260905100738 54 129 0.0 0.0 0.00 0.00 0.00 89 1013.8
20260905100638 54 130 0.0 0.0 0.00 0.00 0.00 89 1013.8
20260905100537 54 129 0.0 0.0 0.00 0.00 0.00 89 1013.8
20260905100437 54 130 0.0 0.0 0.00 0.00 0.00 90 1013.8
20260905100336 54 129 0.0 0.0 0.00 0.00 0.00 90 1013.8
20260905100241 54 130 0.0 0.0 0.00 0.00 0.00 90 1013.8
20260905100234 54 129 0.0 0.0 0.00 0.00 0.00 90 1013.8
20260905100133 54 129 0.0 0.0 0.00 0.00 0.00 89 1013.8
20260905100031 54 129 0.0 0.0 0.00 0.00 0.00 89 1013.8
20260905095929 54 130 0.0 0.0 0.00 0.00 0.00 88 1013.8
20260905095829 54 130 0.0 0.0 0.00 0.00 0.00 88 1013.8
20260905095738 54 130 0.0 0.0 0.00 0.00 0.00 88 1013.8
20260905095730 54 129 0.0 0.0 0.00 0.00 0.00 88 1013.8
20260905095627 54 129 0.0 0.0 0.00 0.00 0.00 88 1013.9
20260905095525 54 129 0.0 0.0 0.00 0.00 0.00 89 1013.8
20260905095452 54 129 0.0 0.0 0.00 0.00 0.00 88 1013.8
20260905095421 54 129 0.0 0.0 0.00 0.00 0.00 89 1013.8
20260905095346 54 129 0.0 0.0 0.00 0.00 0.00 89 1013.8
20260905095222 54 130 0.0 0.0 0.00 0.00 0.00 88 1013.8
20260905095121 54 129 0.0 0.0 0.00 0.00 0.00 88 1013.8
20260905095019 54 129 0.0 0.0 0.00 0.00 0.00 88 1013.8
20260905094916 55 130 0.0 0.0 0.00 0.00 0.00 88 1013.8
20260905094815 55 130 0.0 0.0 0.00 0.00 0.00 88 1013.9
20260905094715 55 129 0.0 0.0 0.00 0.00 0.00 88 1013.9
20260905094616 55 130 0.0 0.0 0.00 0.00 0.00 88 1013.8
20260905094513 55 129 0.0 0.0 0.00 0.00 0.00 88 1013.8
20260905094453 55 129 0.0 0.0 0.00 0.00 0.00 87 1013.8
20260905094407 55 129 0.0 0.0 0.00 0.00 0.00 87 1013.8
20260905094345 55 130 0.0 0.0 0.00 0.00 0.00 87 1013.8
20260905094208 55 130 0.0 0.0 0.00 0.00 0.00 87 1013.8
20260905094107 55 130 0.0 0.0 0.00 0.00 0.00 87 1013.8
20260905094007 55 129 0.0 1.0 0.00 0.00 0.00 87 1013.8
20260905093903 55 130 0.0 1.0 0.00 0.00 0.00 87 1013.8
20260905093734 55 129 0.0 1.0 0.00 0.00 0.00 87 1013.8
20260905093705 55 130 0.0 1.0 0.00 0.00 0.00 87 1013.8
20260905093604 55 129 0.0 1.0 0.00 0.00 0.00 87 1013.7
20260905093501 55 129 0.0 1.0 0.00 0.00 0.00 87 1013.8
20260905093401 55 129 0.0 1.0 0.00 0.00 0.00 87 1013.7
20260905093300 55 130 0.0 1.0 0.00 0.00 0.00 87 1013.8
20260905093232 55 129 0.0 1.0 0.00 0.00 0.00 87 1013.8
20260905093203 55 129 0.0 1.0 0.00 0.00 0.00 87 1013.8
20260905093057 55 130 0.0 1.0 0.00 0.00 0.00 87 1013.8
20260905092956 55 130 0.0 1.0 0.00 0.00 0.00 86 1013.8
20260905092849 56 129 0.0 1.0 0.00 0.00 0.00 86 1013.8
20260905092733 56 129 0.0 1.0 0.00 0.00 0.00 86 1013.8
20260905092649 56 129 0.0 1.0 0.00 0.00 0.00 86 1013.9
20260905092549 56 130 0.0 1.0 0.00 0.00 0.00 86 1013.8
20260905092449 56 129 0.0 1.0 0.00 0.00 0.00 86 1013.8
20260905092349 56 130 0.0 1.0 0.00 0.00 0.00 86 1013.8
20260905092247 56 130 0.0 1.0 0.00 0.00 0.00 86 1013.8
20260905092233 56 129 0.0 1.0 0.00 0.00 0.00 86 1013.8
20260905092147 56 129 0.0 1.0 0.00 0.00 0.00 86 1013.8
20260905092046 56 129 0.0 1.0 0.00 0.00 0.00 86 1013.8
20260905091951 56 129 0.0 1.0 0.00 0.00 0.00 86 1013.9
20260905091943 56 129 0.0 1.0 0.00 0.00 0.00 86 1013.9
20260905091850 56 130 0.0 1.0 0.00 0.00 0.00 86 1013.9
20260905091841 56 129 0.0 1.0 0.00 0.00 0.00 86 1013.9
20260905091643 56 129 0.0 1.0 0.00 0.00 0.00 86 1013.9
20260905091543 56 130 0.0 1.0 0.00 0.00 0.00 86 1013.8
20260905091443 56 129 0.0 1.0 0.00 0.00 0.00 86 1013.8
20260905091341 56 130 0.0 1.0 0.00 0.00 0.00 86 1013.9
20260905091231 56 129 0.0 1.0 0.00 0.00 0.00 85 1013.9
20260905091139 56 129 0.0 1.0 0.00 0.00 0.00 85 1013.9
20260905091037 56 129 0.0 1.0 0.00 0.00 0.00 85 1013.9
20260905090950 56 129 0.0 1.0 0.00 0.00 0.00 85 1013.9
20260905090938 56 129 0.0 1.0 0.00 0.00 0.00 85 1013.9
20260905090849 56 130 0.0 1.0 0.00 0.00 0.00 85 1013.9
20260905090841 56 129 0.0 1.0 0.00 0.00 0.00 85 1013.9
20260905090637 56 129 0.0 1.0 0.00 0.00 0.00 85 1013.9
20260905090537 56 129 0.0 1.0 0.00 0.00 0.00 85 1013.9
20260905090454 56 129 0.0 1.0 0.00 0.00 0.00 85 1013.9
20260905090437 56 130 0.0 1.0 0.00 0.00 0.00 85 1013.9
20260905090348 56 129 0.0 1.0 0.00 0.00 0.00 85 1013.9
20260905090339 56 130 0.0 1.0 0.00 0.00 0.00 85 1013.9
20260905090135 56 129 0.0 1.0 0.00 0.00 0.00 84 1013.9
20260905090035 56 129 0.0 1.0 0.00 0.00 0.00 85 1013.9
20260905085931 56 130 0.0 1.0 0.00 0.00 0.00 85 1013.9
20260905085831 56 129 0.0 1.0 0.00 0.00 0.00 85 1013.9
20260905085733 56 129 0.0 1.0 0.00 0.00 0.00 84 1013.9
20260905085629 56 130 0.0 1.0 0.00 0.00 0.00 84 1013.9
20260905085527 56 129 0.0 1.0 0.00 0.00 0.00 84 1013.9
20260905085427 56 130 0.0 1.0 0.00 0.00 0.00 84 1013.9
20260905085328 56 130 0.0 0.0 0.00 0.00 0.00 84 1013.9
20260905085229 56 129 0.0 1.0 0.00 0.00 0.00 84 1013.9
20260905085127 56 129 0.0 1.0 0.00 0.00 0.00 84 1013.9
20260905085026 56 130 0.0 1.0 0.00 0.00 0.00 84 1013.9
20260905084923 56 130 0.0 1.0 0.00 0.00 0.00 83 1013.9
20260905084823 56 129 0.0 1.0 0.00 0.00 0.00 83 1013.9
20260905084723 57 129 0.0 1.0 0.00 0.00 0.00 83 1014.0
20260905084611 57 129 0.0 2.0 0.00 0.00 0.00 83 1014.0
20260905084511 57 129 0.0 2.0 0.00 0.00 0.00 83 1014.0
20260905084411 57 129 0.0 2.0 0.00 0.00 0.00 83 1013.9
20260905084311 57 129 0.0 2.0 0.00 0.00 0.00 83 1014.0
20260905084211 57 89 0.0 2.0 0.00 0.00 0.00 83 1014.0
20260905084106 57 88 0.0 2.0 0.00 0.00 0.00 83 1014.0
20260905084006 57 88 0.0 2.0 0.00 0.00 0.00 83 1014.0
20260905083906 57 89 0.0 2.0 0.00 0.00 0.00 83 1014.0
20260905083806 57 89 0.0 2.0 0.00 0.00 0.00 83 1014.0
20260905083712 57 88 0.0 2.0 0.00 0.00 0.00 83 1014.0
20260905083706 57 117 0.0 2.0 0.00 0.00 0.00 83 1014.0
20260905083559 57 117 0.0 2.0 0.00 0.00 0.00 83 1014.0
20260905083500 57 117 0.0 2.0 0.00 0.00 0.00 83 1014.0
20260905083424 57 146 0.0 2.0 0.00 0.00 0.00 82 1014.0
20260905083359 57 117 0.0 2.0 0.00 0.00 0.00 83 1014.0
20260905083312 57 117 0.0 2.0 0.00 0.00 0.00 83 1014.0
20260905083201 57 117 0.0 2.0 0.00 0.00 0.00 83 1014.0
20260905083057 57 117 0.0 2.0 0.00 0.00 0.00 83 1014.0
20260905083045 57 127 0.0 2.0 0.00 0.00 0.00 83 1014.0
20260905082858 57 127 0.0 2.0 0.00 0.00 0.00 83 1014.0
20260905082756 57 146 0.0 2.0 0.00 0.00 0.00 83 1014.0
20260905082654 57 134 0.0 2.0 0.00 0.00 0.00 82 1014.0
20260905082554 57 146 0.0 2.0 0.00 0.00 0.00 83 1014.0
20260905082451 57 147 0.0 2.0 0.00 0.00 0.00 83 1014.0
20260905082352 57 105 0.0 2.0 0.00 0.00 0.00 83 1014.0
20260905082249 57 105 0.0 2.0 0.00 0.00 0.00 83 1013.9
20260905082211 57 113 0.0 2.0 0.00 0.00 0.00 83 1014.0
20260905082147 57 113 0.0 2.0 0.00 0.00 0.00 82 1014.0
20260905082047 57 155 0.0 2.0 0.00 0.00 0.00 82 1014.0
20260905081946 57 155 0.0 2.0 0.00 0.00 0.00 82 1013.9
20260905081845 57 155 0.0 2.0 0.00 0.00 0.00 82 1013.9
20260905081743 57 155 0.0 2.0 0.00 0.00 0.00 82 1013.9
20260905081712 57 155 0.0 2.0 0.00 0.00 0.00 82 1014.0
20260905081641 57 155 0.0 2.0 0.00 0.00 0.00 82 1014.0
20260905081538 57 155 0.0 2.0 0.00 0.00 0.00 82 1014.0
20260905081438 57 155 0.0 2.0 0.00 0.00 0.00 82 1014.0
20260905081338 57 155 0.0 2.0 0.00 0.00 0.00 81 1014.0
20260905081237 57 155 0.0 2.0 0.00 0.00 0.00 81 1013.9
20260905081211 57 155 0.0 1.0 0.00 0.00 0.00 81 1014.0
20260905081135 57 155 0.0 1.0 0.00 0.00 0.00 81 1014.0
20260905081036 57 155 0.0 1.0 0.00 0.00 0.00 81 1014.0
20260905080936 57 155 0.0 1.0 0.00 0.00 0.00 81 1014.0
20260905080833 57 155 0.0 1.0 0.00 0.00 0.00 81 1013.9
20260905080711 57 155 0.0 1.0 0.00 0.00 0.00 81 1013.9
20260905080629 57 155 0.0 1.0 0.00 0.00 0.00 81 1013.9
20260905080530 57 155 0.0 1.0 0.00 0.00 0.00 81 1013.9
20260905080428 58 155 0.0 2.0 0.00 0.00 0.00 80 1013.9
20260905080327 58 155 0.0 2.0 0.00 0.00 0.00 81 1013.9
20260905080225 58 156 0.0 2.0 0.00 0.00 0.00 80 1013.9
20260905080123 58 108 0.0 2.0 0.00 0.00 0.00 80 1013.9
20260905080017 58 108 0.0 2.0 0.00 0.00 0.00 80 1013.9
20260905075917 58 108 0.0 2.0 0.00 0.00 0.00 80 1013.9
20260905075817 58 108 0.0 2.0 0.00 0.00 0.00 80 1013.9
20260905075711 58 108 1.0 2.0 0.00 0.00 0.00 80 1013.9
20260905075618 58 108 1.0 2.0 0.00 0.00 0.00 80 1013.9
20260905075512 58 117 1.0 3.0 0.00 0.00 0.00 80 1013.9
20260905075411 58 117 1.0 3.0 0.00 0.00 0.00 80 1013.8
20260905075311 58 117 1.0 3.0 0.00 0.00 0.00 80 1013.8
20260905075211 58 117 1.0 3.0 0.00 0.00 0.00 80 1013.8
20260905075111 58 116 1.0 3.0 0.00 0.00 0.00 80 1013.8
20260905075005 58 115 1.0 3.0 0.00 0.00 0.00 80 1013.8
20260905074905 58 103 1.0 3.0 0.00 0.00 0.00 80 1013.8
20260905074806 58 103 1.0 3.0 0.00 0.00 0.00 80 1013.8
20260905074706 58 103 1.0 3.0 0.00 0.00 0.00 80 1013.8
20260905074605 58 103 1.0 3.0 0.00 0.00 0.00 80 1013.8
20260905074459 58 100 1.0 3.0 0.00 0.00 0.00 80 1013.8
20260905074359 58 112 1.0 4.0 0.00 0.00 0.00 80 1013.8
20260905074259 58 71 1.0 4.0 0.00 0.00 0.00 80 1013.8
20260905074211 58 173 1.0 4.0 0.00 0.00 0.00 80 1013.7
20260905074201 58 173 1.0 4.0 0.00 0.00 0.00 79 1013.7
20260905074100 58 174 1.0 4.0 0.00 0.00 0.00 79 1013.7
20260905073953 58 174 2.0 4.0 0.00 0.00 0.00 79 1013.7
20260905073854 58 174 2.0 4.0 0.00 0.00 0.00 79 1013.7
20260905073753 58 173 2.0 4.0 0.00 0.00 0.00 79 1013.7
20260905073710 58 103 2.0 4.0 0.00 0.00 0.00 79 1013.7
20260905073656 58 103 2.0 4.0 0.00 0.00 0.00 79 1013.7
20260905073554 58 103 2.0 4.0 0.00 0.00 0.00 79 1013.6
20260905073447 58 100 2.0 4.0 0.00 0.00 0.00 79 1013.7
20260905073348 58 98 1.0 4.0 0.00 0.00 0.00 79 1013.6
20260905073247 58 88 1.0 4.0 0.00 0.00 0.00 79 1013.6
20260905073211 58 110 1.0 4.0 0.00 0.00 0.00 79 1013.6
20260905073146 58 113 1.0 4.0 0.00 0.00 0.00 79 1013.6
20260905073046 58 110 1.0 4.0 0.00 0.00 0.00 79 1013.6
20260905072940 58 107 1.0 4.0 0.00 0.00 0.00 79 1013.6
20260905072839 58 109 1.0 3.0 0.00 0.00 0.00 78 1013.6
20260905072739 58 103 1.0 3.0 0.00 0.01 0.00 78 1013.6
20260905072711 58 115 1.0 3.0 0.00 0.01 0.00 78 1013.6
20260905072639 58 102 1.0 3.0 0.00 0.01 0.00 78 1013.6
20260905072539 58 79 1.0 3.0 0.00 0.01 0.00 78 1013.6
20260905072435 58 79 1.0 3.0 0.00 0.01 0.00 78 1013.6
20260905072336 58 78 1.0 3.0 0.00 0.01 0.00 78 1013.7
20260905072234 59 77 2.0 4.0 0.00 0.01 0.00 78 1013.7
20260905072223 59 60 2.0 4.0 0.00 0.01 0.00 78 1013.6
20260905072133 59 117 2.0 4.0 0.00 0.01 0.00 78 1013.6
20260905072031 59 111 2.0 4.0 0.00 0.01 0.00 77 1013.6
20260905071926 59 110 2.0 4.0 0.00 0.01 0.00 77 1013.6
20260905071825 59 118 2.0 4.0 0.00 0.01 0.00 77 1013.6
20260905071725 59 99 2.0 4.0 0.00 0.01 0.00 77 1013.6
20260905071706 59 115 2.0 4.0 0.00 0.01 0.00 77 1013.6
20260905071626 59 103 2.0 4.0 0.00 0.01 0.00 77 1013.6
20260905071525 59 100 2.0 4.0 0.00 0.01 0.00 77 1013.6
20260905071432 59 113 1.0 3.0 0.00 0.02 0.00 77 1013.5
20260905071425 59 95 2.0 4.0 0.00 0.01 0.00 77 1013.6
20260905071324 59 96 2.0 3.0 0.00 0.02 0.00 77 1013.6
20260905071309 59 113 2.0 3.0 0.00 0.02 0.00 77 1013.6
20260905071122 60 113 1.0 3.0 0.00 0.02 0.00 77 1013.5
20260905071020 60 88 1.0 3.0 0.00 0.02 0.00 77 1013.6
20260905070916 60 113 1.0 3.0 0.00 0.02 0.00 77 1013.6
20260905070813 60 167 1.0 3.0 0.00 0.02 0.00 77 1013.6
20260905070713 60 83 1.0 3.0 0.00 0.02 0.00 77 1013.5
20260905070654 60 103 1.0 3.0 0.00 0.02 0.00 77 1013.5
20260905070629 60 113 1.0 3.0 0.00 0.02 0.00 77 1013.4
20260905070613 60 115 1.0 3.0 0.00 0.02 0.00 77 1013.5
20260905070522 60 75 1.0 3.0 0.00 0.02 0.00 77 1013.5
20260905070410 60 68 1.0 3.0 0.00 0.02 0.00 77 1013.5
20260905070307 60 104 1.0 3.0 0.00 0.02 0.00 77 1013.4
20260905070257 60 107 1.0 3.0 0.00 0.02 0.00 77 1013.4
20260905070108 60 111 1.0 3.0 0.00 0.03 0.00 77 1013.4
20260905070008 60 115 1.0 3.0 0.00 0.03 0.00 76 1013.3
20260905065910 60 150 1.0 6.0 0.00 0.03 0.03 76 1013.3
20260905065906 60 139 1.0 4.0 0.00 0.03 0.03 76 1013.3
20260905065806 60 153 1.0 4.0 0.00 0.03 0.03 76 1013.3
20260905065758 60 149 1.0 4.0 0.00 0.03 0.03 76 1013.3
20260905065604 60 157 2.0 6.0 0.00 0.03 0.03 76 1013.3
20260905065501 60 139 2.0 6.0 0.00 0.03 0.03 76 1013.3
20260905065357 60 139 2.0 6.0 0.00 0.03 0.03 76 1013.3
20260905065255 60 233 2.0 6.0 0.00 0.03 0.03 76 1013.2
20260905065201 60 233 2.0 6.0 0.00 0.03 0.03 76 1013.2
20260905065147 60 183 2.0 6.0 0.00 0.03 0.03 76 1013.2
20260905065054 60 210 2.0 6.0 0.00 0.03 0.03 76 1013.2
20260905064951 60 219 1.0 6.0 0.00 0.03 0.03 76 1013.2
20260905064846 60 235 2.0 6.0 0.00 0.03 0.03 76 1013.2
20260905064746 60 235 2.0 6.0 0.00 0.03 0.03 76 1013.2
20260905064646 60 224 2.0 6.0 0.00 0.03 0.03 75 1013.1
20260905064546 60 146 2.0 6.0 0.00 0.03 0.03 75 1013.2
20260905064446 60 194 2.0 6.0 0.00 0.03 0.03 75 1013.1
20260905064346 60 201 2.0 6.0 0.00 0.03 0.03 75 1013.2
20260905064244 60 229 2.0 6.0 0.00 0.03 0.03 75 1013.1
20260905064144 60 186 2.0 6.0 0.00 0.03 0.03 75 1013.1
20260905064042 60 186 2.0 6.0 0.00 0.03 0.03 75 1013.1
20260905063939 60 231 2.0 6.0 0.00 0.03 0.03 75 1013.2
20260905063838 60 145 2.0 6.0 0.00 0.03 0.03 75 1013.2
20260905063737 60 215 2.0 6.0 0.00 0.03 0.03 75 1013.1
20260905063645 60 210 2.0 5.0 0.00 0.03 0.03 75 1013.1
20260905063638 60 226 2.0 5.0 0.00 0.03 0.03 75 1013.1
20260905063536 60 217 2.0 5.0 0.00 0.03 0.03 75 1013.2
20260905063433 60 240 2.0 5.0 0.00 0.03 0.03 74 1013.2
20260905063327 60 183 2.0 5.0 0.00 0.03 0.03 74 1013.2
20260905063229 60 210 2.0 5.0 0.00 0.03 0.03 74 1013.2
20260905063145 60 231 2.0 5.0 0.00 0.03 0.03 74 1013.2
20260905063127 60 225 2.0 5.0 0.00 0.03 0.03 74 1013.2
20260905063028 60 226 2.0 5.0 0.00 0.03 0.03 74 1013.2
20260905062927 60 163 1.0 5.0 0.00 0.03 0.03 74 1013.2
20260905062823 60 212 1.0 4.0 0.00 0.03 0.03 74 1013.2
20260905062723 60 228 1.0 4.0 0.00 0.03 0.03 74 1013.2
20260905062657 60 228 1.0 4.0 0.00 0.03 0.03 74 1013.2
20260905062624 60 229 1.0 4.0 0.00 0.03 0.03 74 1013.2
20260905062524 61 221 2.0 4.0 0.00 0.03 0.03 74 1013.2
20260905062420 61 228 1.0 4.0 0.00 0.03 0.03 74 1013.2
20260905062316 61 223 1.0 3.0 0.00 0.03 0.03 74 1013.2
20260905062216 61 222 1.0 3.0 0.00 0.03 0.03 74 1013.3
20260905062143 61 223 1.0 3.0 0.00 0.03 0.03 74 1013.3
20260905062116 61 222 1.0 4.0 0.00 0.03 0.03 74 1013.2
20260905062016 61 214 2.0 5.0 0.00 0.03 0.03 74 1013.2
20260905061915 61 174 2.0 5.0 0.00 0.03 0.03 74 1013.2
20260905061859 61 214 2.0 5.0 0.00 0.03 0.03 74 1013.2
20260905061816 61 216 2.0 5.0 0.00 0.03 0.03 74 1013.2
20260905061715 61 212 2.0 5.0 0.00 0.03 0.03 74 1013.2
20260905061613 61 163 2.0 5.0 0.00 0.03 0.03 74 1013.3
20260905061511 61 226 2.0 5.0 0.00 0.03 0.03 74 1013.2
20260905061410 61 225 2.0 5.0 0.00 0.03 0.03 73 1013.3
20260905061303 61 221 2.0 5.0 0.00 0.03 0.03 73 1013.2
20260905061204 61 221 2.0 5.0 0.00 0.03 0.03 73 1013.2
20260905061141 61 212 2.0 5.0 0.00 0.03 0.03 73 1013.2
20260905061103 61 193 2.0 5.0 0.00 0.03 0.03 73 1013.3
20260905061004 61 232 2.0 5.0 0.00 0.03 0.03 73 1013.3
20260905060907 61 243 2.0 5.0 0.00 0.03 0.03 73 1013.3
20260905060858 61 221 2.0 5.0 0.00 0.03 0.03 73 1013.3
20260905060759 61 242 2.0 5.0 0.00 0.03 0.03 73 1013.3
20260905060751 61 221 2.0 5.0 0.00 0.03 0.03 73 1013.3
20260905060558 61 198 2.0 5.0 0.00 0.03 0.03 73 1013.2
20260905060458 61 229 2.0 5.0 0.00 0.03 0.03 73 1013.3
20260905060357 61 207 2.0 5.0 0.00 0.03 0.03 73 1013.2
20260905060252 61 226 2.0 6.0 0.00 0.03 0.03 73 1013.2
20260905060154 61 235 2.0 6.0 0.00 0.03 0.03 73 1013.2
20260905060052 62 239 2.0 6.0 0.00 0.03 0.03 73 1013.3
20260905055951 62 241 2.0 6.0 0.00 0.03 0.03 73 1013.2
20260905055851 62 231 2.0 6.0 0.00 0.03 0.03 73 1013.2
20260905055746 62 230 2.0 6.0 0.00 0.03 0.03 73 1013.3
20260905055649 62 230 2.0 6.0 0.00 0.03 0.03 73 1013.3
20260905055638 62 229 2.0 6.0 0.00 0.03 0.03 73 1013.3
20260905055546 62 229 2.0 6.0 0.00 0.03 0.03 73 1013.3
20260905055445 62 239 2.0 6.0 0.00 0.03 0.03 73 1013.3
20260905055346 62 231 2.0 6.0 0.00 0.03 0.03 73 1013.3
20260905055242 62 243 2.0 6.0 0.00 0.03 0.03 73 1013.3
20260905055145 62 232 2.0 6.0 0.00 0.03 0.03 73 1013.3
20260905055139 62 233 2.0 6.0 0.00 0.03 0.03 73 1013.3
20260905055040 62 226 2.0 6.0 0.00 0.03 0.03 73 1013.3
20260905054940 62 211 2.0 6.0 0.00 0.03 0.03 73 1013.3
20260905054840 62 236 2.0 6.0 0.00 0.03 0.03 73 1013.3
20260905054735 62 238 2.0 6.0 0.00 0.03 0.03 73 1013.3
20260905054640 62 186 2.0 6.0 0.00 0.03 0.03 73 1013.3
20260905054634 62 240 2.0 6.0 0.00 0.03 0.03 73 1013.3
20260905054533 62 236 2.0 6.0 0.00 0.03 0.03 73 1013.2
20260905054434 62 239 2.0 6.0 0.00 0.03 0.03 73 1013.3
20260905054333 62 218 3.0 7.0 0.00 0.03 0.03 73 1013.2
20260905054228 62 259 3.0 7.0 0.00 0.03 0.03 73 1013.2
20260905054128 62 229 3.0 7.0 0.00 0.03 0.03 73 1013.2
20260905054027 62 211 3.0 7.0 0.00 0.03 0.03 73 1013.3
20260905053928 62 141 2.0 7.0 0.00 0.03 0.03 73 1013.2
20260905053827 62 239 3.0 7.0 0.00 0.03 0.03 73 1013.3
20260905053720 62 255 3.0 8.0 0.00 0.03 0.03 73 1013.3
20260905053638 62 233 3.0 8.0 0.00 0.03 0.03 73 1013.3
20260905053619 62 193 3.0 8.0 0.00 0.03 0.03 73 1013.3
20260905053520 62 173 3.0 8.0 0.00 0.03 0.03 73 1013.3
20260905053420 62 215 3.0 8.0 0.00 0.03 0.03 73 1013.3
20260905053317 62 207 2.0 8.0 0.00 0.03 0.03 72 1013.3
20260905053212 62 229 2.0 8.0 0.00 0.03 0.03 72 1013.3
20260905053132 62 210 2.0 8.0 0.00 0.03 0.03 72 1013.3
20260905053112 62 235 2.0 8.0 0.00 0.03 0.03 72 1013.3
20260905053012 62 203 3.0 8.0 0.00 0.03 0.03 72 1013.3
20260905052911 62 235 3.0 8.0 0.00 0.03 0.03 72 1013.3
20260905052812 62 234 3.0 7.0 0.00 0.03 0.03 72 1013.3
20260905052714 62 158 3.0 7.0 0.00 0.03 0.03 72 1013.3
20260905052627 62 218 3.0 7.0 0.00 0.03 0.03 72 1013.3
20260905052607 62 186 3.0 7.0 0.00 0.03 0.03 72 1013.3
20260905052508 62 239 3.0 7.0 0.00 0.03 0.03 72 1013.3
20260905052408 62 241 3.0 7.0 0.00 0.03 0.03 72 1013.3
20260905052306 62 242 3.0 7.0 0.00 0.03 0.03 72 1013.3
20260905052203 63 241 3.0 7.0 0.00 0.03 0.03 72 1013.3
20260905052121 63 224 3.0 7.0 0.00 0.03 0.03 72 1013.3
20260905052101 63 224 3.0 7.0 0.00 0.03 0.03 72 1013.3
20260905052002 63 201 3.0 7.0 0.00 0.03 0.03 72 1013.3
20260905051902 63 217 3.0 6.0 0.00 0.03 0.03 71 1013.3
20260905051800 63 241 3.0 6.0 0.00 0.03 0.03 71 1013.3
20260905051658 63 228 3.0 7.0 0.00 0.03 0.03 71 1013.3
20260905051614 63 228 4.0 7.0 0.00 0.03 0.03 71 1013.4
20260905051554 63 229 4.0 8.0 0.00 0.03 0.03 71 1013.4
20260905051454 63 248 4.0 8.0 0.00 0.03 0.03 71 1013.3
20260905051354 63 235 4.0 8.0 0.00 0.03 0.03 71 1013.3
20260905051253 63 231 4.0 9.0 0.00 0.03 0.03 71 1013.3
20260905051150 63 226 4.0 9.0 0.00 0.03 0.03 71 1013.4
20260905051108 63 245 4.0 9.0 0.00 0.03 0.03 71 1013.3
20260905051047 63 238 4.0 9.0 0.00 0.03 0.03 70 1013.3
20260905050948 63 245 4.0 9.0 0.00 0.03 0.03 70 1013.3
20260905050847 63 217 4.0 9.0 0.00 0.03 0.03 70 1013.3
20260905050748 63 239 4.0 9.0 0.00 0.03 0.03 70 1013.3
20260905050644 63 228 4.0 9.0 0.00 0.03 0.03 70 1013.3
20260905050602 63 212 4.0 9.0 0.00 0.03 0.03 70 1013.4
20260905050542 63 226 4.0 9.0 0.00 0.03 0.03 70 1013.4
20260905050442 63 238 4.0 9.0 0.00 0.03 0.03 70 1013.4
20260905050341 64 223 4.0 9.0 0.00 0.03 0.03 70 1013.4
20260905050242 64 194 4.0 9.0 0.00 0.03 0.03 69 1013.3
20260905050137 64 226 4.0 9.0 0.00 0.03 0.03 69 1013.3
20260905050109 64 262 4.0 9.0 0.00 0.03 0.03 69 1013.4
20260905050036 64 232 4.0 9.0 0.00 0.03 0.03 69 1013.4
20260905045935 64 215 3.0 9.0 0.00 0.03 0.03 69 1013.3
20260905045836 64 256 3.0 9.0 0.00 0.03 0.03 69 1013.3
20260905045735 64 250 3.0 9.0 0.00 0.03 0.03 69 1013.4
20260905045635 64 235 3.0 9.0 0.00 0.03 0.03 69 1013.3
20260905045550 64 218 3.0 9.0 0.00 0.03 0.03 69 1013.3
20260905045533 64 229 3.0 9.0 0.00 0.03 0.03 69 1013.3
20260905045434 64 248 3.0 9.0 0.00 0.03 0.03 68 1013.3
20260905045332 64 238 3.0 9.0 0.00 0.03 0.03 68 1013.4
20260905045230 64 226 3.0 9.0 0.00 0.03 0.03 68 1013.4
20260905045127 64 238 3.0 8.0 0.00 0.03 0.03 68 1013.4
20260905045044 64 283 3.0 8.0 0.00 0.03 0.03 68 1013.4
20260905045028 64 253 3.0 8.0 0.00 0.03 0.03 68 1013.4
20260905044928 64 228 3.0 10.0 0.00 0.03 0.03 67 1013.4
20260905044825 64 228 4.0 10.0 0.00 0.03 0.03 67 1013.4
20260905044724 65 231 4.0 10.0 0.00 0.03 0.03 67 1013.4
20260905044620 65 219 4.0 10.0 0.00 0.03 0.03 67 1013.4
20260905044538 65 210 3.0 10.0 0.00 0.03 0.03 67 1013.3
20260905044520 65 235 3.0 10.0 0.00 0.03 0.03 67 1013.3
20260905044419 65 231 4.0 10.0 0.00 0.03 0.03 66 1013.4
20260905044320 65 231 4.0 10.0 0.00 0.03 0.03 66 1013.3
20260905044218 65 242 4.0 10.0 0.00 0.03 0.03 66 1013.3
20260905044111 65 238 3.0 10.0 0.00 0.03 0.03 66 1013.2
20260905044032 65 238 3.0 10.0 0.00 0.03 0.03 66 1013.2
20260905044012 65 231 3.0 7.0 0.00 0.03 0.03 66 1013.2
20260905043911 65 231 3.0 7.0 0.00 0.03 0.03 65 1013.3
20260905043811 65 246 3.0 6.0 0.00 0.03 0.03 65 1013.2
20260905043747 65 241 3.0 6.0 0.00 0.03 0.03 64 1013.2
20260905043713 65 224 3.0 6.0 0.00 0.03 0.03 65 1013.3
20260905043637 65 228 3.0 6.0 0.00 0.03 0.03 64 1013.2
20260905043505 65 241 3.0 8.0 0.00 0.03 0.03 64 1013.2
20260905043406 65 240 3.0 8.0 0.00 0.03 0.03 63 1013.3
20260905043305 66 200 3.0 8.0 0.00 0.03 0.03 63 1013.2
20260905043206 66 240 3.0 8.0 0.00 0.03 0.03 63 1013.3
20260905043108 66 219 3.0 8.0 0.00 0.03 0.03 63 1013.2
20260905043022 66 226 3.0 8.0 0.00 0.03 0.03 63 1013.2
20260905043005 66 221 3.0 8.0 0.00 0.03 0.03 63 1013.2
20260905042903 66 228 3.0 8.0 0.00 0.03 0.03 62 1013.2
20260905042801 66 248 3.0 8.0 0.00 0.03 0.03 62 1013.1
20260905042700 66 236 3.0 8.0 0.00 0.03 0.03 62 1013.1
20260905042556 66 230 3.0 8.0 0.00 0.03 0.03 62 1013.1
20260905042514 66 257 3.0 8.0 0.00 0.03 0.03 62 1013.1
20260905042454 66 236 3.0 8.0 0.00 0.03 0.03 62 1013.1
20260905042354 66 246 2.0 8.0 0.00 0.03 0.03 62 1013.1
20260905042253 66 231 2.0 8.0 0.00 0.03 0.03 62 1013.1
20260905042157 66 211 2.0 8.0 0.00 0.03 0.03 61 1013.1
20260905042048 66 203 3.0 10.0 0.00 0.03 0.03 61 1013.1
20260905042008 66 239 3.0 10.0 0.00 0.03 0.03 61 1013.1
20260905041948 66 238 3.0 10.0 0.00 0.03 0.03 61 1013.1
20260905041848 66 260 3.0 10.0 0.00 0.03 0.03 61 1013.0
20260905041748 66 243 3.0 10.0 0.00 0.03 0.03 61 1013.0
20260905041648 66 238 3.0 10.0 0.00 0.03 0.03 61 1013.0
20260905041546 66 219 3.0 10.0 0.00 0.03 0.03 61 1013.0
20260905041503 66 219 3.0 10.0 0.00 0.03 0.03 61 1013.0
20260905041445 66 235 3.0 10.0 0.00 0.03 0.03 61 1013.0
20260905041346 66 235 3.0 10.0 0.00 0.03 0.03 61 1013.0
20260905041244 67 210 3.0 10.0 0.00 0.03 0.03 61 1013.0
20260905041141 67 235 3.0 10.0 0.00 0.03 0.03 61 1013.0
20260905041037 67 239 3.0 10.0 0.00 0.03 0.03 61 1013.0
20260905040956 67 240 3.0 10.0 0.00 0.03 0.03 61 1013.0
20260905040937 67 218 3.0 10.0 0.00 0.03 0.03 61 1013.0
20260905040838 67 231 3.0 9.0 0.00 0.03 0.03 61 1012.9
20260905040739 67 212 3.0 9.0 0.00 0.03 0.03 61 1012.9
20260905040636 67 246 3.0 9.0 0.00 0.03 0.03 61 1012.9
20260905040532 67 208 3.0 9.0 0.00 0.03 0.03 61 1012.9
20260905040449 67 235 2.0 8.0 0.00 0.03 0.03 61 1012.9
20260905040433 67 231 2.0 9.0 0.00 0.03 0.03 61 1012.9
20260905040429 67 198 2.0 6.0 0.00 0.03 0.03 61 1012.9
20260905040330 67 224 2.0 6.0 0.00 0.03 0.03 61 1012.9
20260905040311 67 233 2.0 6.0 0.00 0.03 0.03 61 1012.9
20260905040129 67 200 2.0 6.0 0.00 0.03 0.03 61 1012.9
20260905040055 67 250 2.0 6.0 0.00 0.03 0.03 61 1012.9
20260905035927 67 228 2.0 9.0 0.00 0.03 0.03 61 1012.9
20260905035824 67 221 3.0 9.0 0.00 0.03 0.03 61 1012.9
20260905035723 67 221 3.0 9.0 0.00 0.03 0.03 61 1012.9
20260905035658 67 231 3.0 11.0 0.00 0.03 0.03 60 1012.8
20260905035624 67 235 3.0 9.0 0.00 0.03 0.03 60 1012.9
20260905035549 67 231 3.0 9.0 0.00 0.03 0.03 60 1012.9
20260905035418 67 231 3.0 11.0 0.00 0.03 0.03 60 1012.8
20260905035318 67 232 3.0 11.0 0.00 0.03 0.03 60 1012.8
20260905035218 67 294 3.0 11.0 0.00 0.03 0.03 60 1012.8
20260905035122 67 238 3.0 11.0 0.00 0.03 0.03 60 1012.7
20260905035011 67 242 3.0 11.0 0.00 0.03 0.03 60 1012.7
20260905034932 67 240 3.0 11.0 0.00 0.03 0.03 60 1012.7
20260905034912 67 212 3.0 11.0 0.00 0.03 0.03 60 1012.8
20260905034811 67 242 3.0 11.0 0.00 0.03 0.03 60 1012.7
20260905034712 67 255 3.0 11.0 0.00 0.03 0.03 60 1012.8
20260905034611 67 226 3.0 11.0 0.00 0.03 0.03 60 1012.8
20260905034506 67 248 2.0 11.0 0.00 0.03 0.03 60 1012.8
20260905034427 67 250 2.0 10.0 0.00 0.03 0.03 60 1012.8
20260905034406 67 230 2.0 10.0 0.00 0.03 0.03 60 1012.7
20260905034305 68 252 2.0 10.0 0.00 0.03 0.03 60 1012.7
20260905034207 68 276 2.0 10.0 0.00 0.03 0.03 60 1012.7
20260905034105 68 240 2.0 10.0 0.00 0.03 0.03 60 1012.7
20260905034001 68 163 2.0 10.0 0.00 0.03 0.03 60 1012.7
20260905033924 68 253 2.0 10.0 0.00 0.03 0.03 60 1012.7
20260905033859 68 233 2.0 10.0 0.00 0.03 0.03 60 1012.7
20260905033800 68 253 2.0 7.0 0.00 0.03 0.03 60 1012.7
20260905033700 68 228 3.0 7.0 0.00 0.03 0.03 60 1012.7
20260905033559 68 242 3.0 7.0 0.00 0.03 0.03 60 1012.7
20260905033500 68 253 3.0 8.0 0.00 0.03 0.03 59 1012.6
20260905033414 68 245 3.0 9.0 0.00 0.03 0.03 59 1012.7
20260905033358 68 245 3.0 9.0 0.00 0.03 0.03 59 1012.7
20260905033256 68 236 4.0 9.0 0.00 0.03 0.03 59 1012.6
20260905033156 68 259 4.0 9.0 0.00 0.03 0.03 59 1012.7
20260905033054 68 232 4.0 9.0 0.00 0.03 0.03 59 1012.6
20260905032952 68 248 3.0 9.0 0.00 0.03 0.03 59 1012.6
20260905032908 68 274 3.0 9.0 0.00 0.03 0.03 59 1012.5
20260905032851 68 239 3.0 9.0 0.00 0.03 0.03 59 1012.5
20260905032752 68 239 3.0 9.0 0.00 0.03 0.03 59 1012.5
20260905032653 68 245 3.0 9.0 0.00 0.03 0.03 59 1012.5
20260905032547 68 235 3.0 9.0 0.00 0.03 0.03 59 1012.4
20260905032444 69 239 2.0 9.0 0.00 0.03 0.03 59 1012.5
20260905032403 69 268 2.0 8.0 0.00 0.03 0.03 59 1012.5
20260905032342 69 238 2.0 8.0 0.00 0.03 0.03 59 1012.5
20260905032242 69 232 2.0 6.0 0.00 0.03 0.03 59 1012.4
20260905032142 69 229 2.0 6.0 0.00 0.03 0.03 59 1012.4
20260905032041 69 287 2.0 6.0 0.00 0.03 0.03 59 1012.4
20260905031939 69 231 2.0 7.0 0.00 0.03 0.03 59 1012.4
20260905031857 69 221 2.0 7.0 0.00 0.03 0.03 59 1012.4
20260905031839 69 283 2.0 7.0 0.00 0.03 0.03 58 1012.4
20260905031740 69 203 2.0 7.0 0.00 0.03 0.03 58 1012.4
20260905031637 69 269 2.0 7.0 0.00 0.03 0.03 58 1012.4
20260905031536 69 271 2.0 7.0 0.00 0.03 0.03 58 1012.3
20260905031429 69 238 2.0 7.0 0.00 0.03 0.03 58 1012.3
20260905031350 69 194 2.0 7.0 0.00 0.03 0.03 58 1012.3
20260905031329 69 201 2.0 7.0 0.00 0.03 0.03 58 1012.3
20260905031231 69 281 2.0 9.0 0.00 0.03 0.03 58 1012.3
20260905031130 69 236 2.0 9.0 0.00 0.03 0.03 58 1012.3
20260905031029 69 257 2.0 9.0 0.00 0.03 0.03 58 1012.3
20260905030924 69 238 2.0 9.0 0.00 0.03 0.03 58 1012.3
20260905030845 69 214 2.0 9.0 0.00 0.03 0.03 58 1012.3
20260905030823 69 214 2.0 9.0 0.00 0.03 0.03 57 1012.3
20260905030724 69 239 2.0 9.0 0.00 0.03 0.03 57 1012.3
20260905030623 70 239 2.0 9.0 0.00 0.03 0.03 57 1012.3
20260905030524 70 217 2.0 9.0 0.00 0.03 0.03 57 1012.3
20260905030419 70 238 2.0 9.0 0.00 0.03 0.03 57 1012.3
20260905030318 70 287 3.0 9.0 0.00 0.03 0.03 57 1012.3
20260905030219 70 288 3.0 9.0 0.00 0.03 0.03 56 1012.3
20260905030118 70 246 3.0 9.0 0.00 0.03 0.03 56 1012.3
20260905030054 70 232 3.0 9.0 0.00 0.03 0.03 56 1012.3
20260905030017 70 277 3.0 9.0 0.00 0.03 0.03 56 1012.3
20260905025943 70 233 3.0 9.0 0.00 0.03 0.03 56 1012.3
20260905025812 70 245 3.0 9.0 0.00 0.03 0.03 56 1012.3
20260905025713 70 235 3.0 9.0 0.00 0.03 0.03 56 1012.2
20260905025611 70 273 3.0 9.0 0.00 0.03 0.03 56 1012.3
20260905025511 70 256 3.0 9.0 0.00 0.03 0.03 56 1012.2
20260905025407 70 289 2.0 9.0 0.00 0.03 0.03 55 1012.2
20260905025327 70 255 2.0 8.0 0.00 0.03 0.03 55 1012.2
20260905025308 70 270 2.0 8.0 0.00 0.03 0.03 55 1012.2
20260905025209 71 278 2.0 7.0 0.00 0.03 0.03 55 1012.2
20260905025108 71 229 2.0 7.0 0.00 0.03 0.03 55 1012.2
20260905025038 71 225 2.0 10.0 0.00 0.03 0.03 55 1012.1
20260905025006 71 219 3.0 8.0 0.00 0.03 0.03 55 1012.2
20260905024930 71 273 2.0 10.0 0.00 0.03 0.03 55 1012.1
20260905024800 71 225 3.0 10.0 0.00 0.03 0.03 55 1012.1
20260905024700 71 210 3.0 10.0 0.00 0.03 0.03 54 1012.1
20260905024600 71 277 3.0 10.0 0.00 0.03 0.03 54 1012.1
20260905024500 71 284 3.0 10.0 0.00 0.03 0.03 54 1012.1
20260905024400 71 229 3.0 10.0 0.00 0.03 0.03 54 1012.1
20260905024314 71 270 2.0 10.0 0.00 0.03 0.03 54 1012.1
20260905024257 71 263 2.0 10.0 0.00 0.03 0.03 54 1012.1
20260905024159 71 263 3.0 10.0 0.00 0.03 0.03 54 1012.1
20260905024055 71 248 3.0 10.0 0.00 0.03 0.03 54 1012.0
20260905023954 71 250 2.0 10.0 0.00 0.03 0.03 53 1012.0
20260905023849 71 278 2.0 10.0 0.00 0.03 0.03 53 1012.0
20260905023808 71 246 2.0 10.0 0.00 0.03 0.03 53 1012.0
20260905023748 72 248 2.0 10.0 0.00 0.03 0.03 53 1012.0
20260905023653 72 271 2.0 10.0 0.00 0.03 0.03 53 1012.1
20260905023548 72 212 3.0 10.0 0.00 0.03 0.03 53 1012.0
20260905023447 72 257 3.0 10.0 0.00 0.03 0.03 52 1012.1
20260905023341 72 271 3.0 10.0 0.00 0.03 0.03 52 1012.1
20260905023303 72 235 3.0 10.0 0.00 0.03 0.03 52 1012.1
20260905023242 72 233 3.0 10.0 0.00 0.03 0.03 52 1012.1
20260905023141 72 239 3.0 12.0 0.00 0.03 0.03 52 1012.1
20260905023042 72 200 4.0 12.0 0.00 0.03 0.03 52 1012.1
20260905022941 72 264 4.0 12.0 0.00 0.03 0.03 52 1012.0
20260905022838 73 302 4.0 12.0 0.00 0.03 0.03 52 1012.0
20260905022758 73 223 4.0 12.0 0.00 0.03 0.03 52 1012.1
20260905022737 73 222 4.0 12.0 0.00 0.03 0.03 52 1012.1
20260905022638 73 250 4.0 12.0 0.00 0.03 0.03 52 1012.1
20260905022538 73 235 4.0 12.0 0.00 0.03 0.03 52 1012.1
20260905022517 73 238 3.0 12.0 0.00 0.03 0.03 51 1012.0
20260905022436 73 221 4.0 12.0 0.00 0.03 0.03 51 1012.1
20260905022401 73 226 4.0 12.0 0.00 0.03 0.03 51 1012.1
20260905022230 73 249 3.0 12.0 0.00 0.03 0.03 50 1012.0
20260905022130 73 235 3.0 12.0 0.00 0.03 0.03 49 1012.0
20260905022030 73 240 2.0 12.0 0.00 0.03 0.03 49 1012.1
20260905021929 74 229 2.0 12.0 0.00 0.03 0.03 48 1012.0
20260905021826 74 136 2.0 6.0 0.00 0.03 0.03 46 1012.0
20260905021744 74 157 2.0 5.0 0.00 0.03 0.03 45 1012.0
20260905021726 74 228 2.0 5.0 0.00 0.03 0.03 45 1012.0
20260905021625 74 235 2.0 5.0 0.00 0.03 0.03 45 1012.0
20260905021526 74 170 2.0 5.0 0.00 0.03 0.03 44 1012.0
20260905021500 74 243 2.0 4.0 0.00 0.03 0.03 44 1011.9
20260905021423 74 226 2.0 5.0 0.00 0.03 0.03 44 1011.9
20260905021349 74 198 2.0 5.0 0.00 0.03 0.03 44 1011.9
20260905021228 74 193 2.0 4.0 0.00 0.03 0.03 44 1011.9
20260905021219 74 229 2.0 4.0 0.00 0.03 0.03 44 1011.9
20260905021119 74 229 2.0 4.0 0.00 0.03 0.03 44 1012.0
20260905021109 74 229 2.0 4.0 0.00 0.03 0.03 44 1012.0
20260905020923 74 229 2.0 4.0 0.00 0.03 0.03 44 1011.9
20260905020843 74 141 2.0 4.0 0.00 0.03 0.03 44 1011.9
20260905020712 74 203 2.0 4.0 0.00 0.03 0.03 44 1011.9
20260905020612 74 207 2.0 5.0 0.00 0.03 0.03 44 1011.9
20260905020512 74 233 2.0 5.0 0.00 0.03 0.03 43 1011.9
20260905020411 74 229 2.0 7.0 0.00 0.03 0.03 44 1011.9
20260905020306 74 229 2.0 7.0 0.00 0.03 0.03 44 1012.0
20260905020240 74 200 2.0 7.0 0.00 0.03 0.03 44 1012.0
20260905020206 74 200 2.0 7.0 0.00 0.03 0.03 43 1011.9
20260905020106 74 200 2.0 7.0 0.00 0.03 0.03 43 1012.0
20260905020006 74 188 2.0 7.0 0.00 0.03 0.03 43 1012.0
20260905015906 74 228 2.0 7.0 0.00 0.03 0.03 43 1012.0
20260905015800 74 235 2.0 7.0 0.00 0.03 0.03 43 1012.0
20260905015720 74 215 2.0 7.0 0.00 0.03 0.03 43 1012.0
20260905015701 74 246 2.0 7.0 0.00 0.03 0.03 43 1012.0
20260905015559 74 226 1.0 7.0 0.00 0.03 0.03 43 1012.1
20260905015459 74 211 1.0 7.0 0.00 0.03 0.03 43 1012.0
20260905015400 74 226 1.0 4.0 0.00 0.03 0.03 43 1012.0
20260905015300 74 246 1.0 4.0 0.00 0.03 0.03 43 1012.0
20260905015214 74 246 1.0 4.0 0.00 0.03 0.03 43 1012.0
20260905015158 74 246 1.0 4.0 0.00 0.03 0.03 43 1012.0
20260905015055 74 246 2.0 4.0 0.00 0.03 0.03 43 1012.1
20260905014956 74 246 2.0 6.0 0.00 0.03 0.03 43 1012.0
20260905014853 74 231 2.0 6.0 0.00 0.03 0.03 43 1012.0
20260905014750 74 231 2.0 6.0 0.00 0.03 0.03 43 1012.1
20260905014708 74 231 2.0 6.0 0.00 0.03 0.03 43 1012.1
20260905014651 74 230 3.0 6.0 0.00 0.03 0.03 43 1012.1
20260905014548 75 240 3.0 8.0 0.00 0.03 0.03 43 1012.0
20260905014447 75 267 3.0 8.0 0.00 0.03 0.03 43 1012.0
20260905014347 75 231 3.0 8.0 0.00 0.03 0.03 42 1012.0
20260905014241 75 207 3.0 8.0 0.00 0.03 0.03 42 1012.0
20260905014203 75 214 3.0 8.0 0.00 0.03 0.03 42 1012.0
20260905014142 75 215 3.0 8.0 0.00 0.03 0.03 42 1012.0
20260905014042 75 240 3.0 8.0 0.00 0.03 0.03 42 1012.0
20260905013942 75 262 3.0 8.0 0.00 0.03 0.03 42 1012.0
20260905013841 75 200 3.0 8.0 0.00 0.03 0.03 41 1012.0
20260905013737 75 198 3.0 8.0 0.00 0.03 0.03 41 1012.0
20260905013701 75 242 3.0 8.0 0.00 0.03 0.03 41 1012.0
20260905013636 75 201 3.0 8.0 0.00 0.03 0.03 41 1012.0
20260905013536 75 188 2.0 7.0 0.00 0.03 0.03 42 1012.0
20260905013435 75 143 3.0 7.0 0.00 0.03 0.03 42 1012.0
20260905013335 75 121 3.0 7.0 0.00 0.03 0.03 41 1012.0
20260905013232 75 217 3.0 7.0 0.00 0.03 0.03 41 1012.0
20260905013151 75 226 3.0 7.0 0.00 0.03 0.03 41 1012.0
20260905013130 75 212 3.0 7.0 0.00 0.03 0.03 41 1012.0
20260905013030 75 238 3.0 7.0 0.00 0.03 0.03 41 1012.0
20260905012929 75 160 3.0 7.0 0.00 0.03 0.03 41 1011.9
20260905012830 75 210 3.0 7.0 0.00 0.03 0.03 41 1012.0
20260905012724 75 138 3.0 7.0 0.00 0.03 0.03 41 1012.0
20260905012645 75 201 3.0 7.0 0.00 0.03 0.03 41 1011.9
20260905012624 75 226 3.0 7.0 0.00 0.03 0.03 41 1011.9
20260905012523 75 186 3.0 8.0 0.00 0.03 0.03 41 1011.9
20260905012423 75 158 3.0 8.0 0.00 0.03 0.03 41 1012.0
20260905012323 75 177 3.0 8.0 0.00 0.03 0.03 41 1011.9
20260905012218 75 253 3.0 8.0 0.00 0.03 0.03 40 1011.9
20260905012138 75 212 3.0 8.0 0.00 0.03 0.03 40 1012.0
20260905012118 75 203 3.0 8.0 0.00 0.03 0.03 40 1012.0
20260905012017 75 231 3.0 8.0 0.00 0.03 0.03 40 1011.9
20260905011918 75 231 3.0 8.0 0.00 0.03 0.03 40 1011.9
20260905011817 75 217 3.0 8.0 0.00 0.03 0.03 40 1011.9
20260905011712 75 273 4.0 8.0 0.00 0.03 0.03 39 1011.9
20260905011636 75 233 4.0 8.0 0.00 0.03 0.03 39 1011.9
20260905011612 75 240 3.0 9.0 0.00 0.03 0.03 39 1011.9
20260905011512 75 212 3.0 9.0 0.00 0.03 0.03 39 1011.8
20260905011412 75 252 3.0 9.0 0.00 0.03 0.03 39 1011.9
20260905011311 75 246 3.0 9.0 0.00 0.03 0.03 39 1011.8
20260905011206 75 223 3.0 9.0 0.00 0.03 0.03 39 1011.8
20260905011138 75 204 3.0 9.0 0.00 0.03 0.03 39 1011.8
20260905011106 75 138 3.0 9.0 0.00 0.03 0.03 39 1011.8
20260905011005 75 154 2.0 9.0 0.00 0.03 0.03 39 1011.9
20260905010906 75 219 2.0 9.0 0.00 0.03 0.03 39 1011.9
20260905010805 75 243 2.0 9.0 0.00 0.03 0.03 38 1011.9
20260905010659 75 253 2.0 9.0 0.00 0.03 0.03 39 1011.9
20260905010634 75 229 2.0 9.0 0.00 0.03 0.03 39 1011.9
20260905010559 75 236 2.0 6.0 0.00 0.03 0.03 39 1011.9
20260905010459 75 170 3.0 6.0 0.00 0.03 0.03 39 1011.9
20260905010400 75 210 3.0 8.0 0.00 0.03 0.03 38 1011.9
20260905010259 75 167 3.0 8.0 0.00 0.03 0.03 39 1011.9
20260905010156 75 211 3.0 8.0 0.00 0.03 0.03 39 1011.9
20260905010135 75 228 3.0 8.0 0.00 0.03 0.03 39 1011.9
20260905010053 75 197 3.0 8.0 0.00 0.03 0.03 39 1011.9
20260905005954 75 197 3.0 8.0 0.00 0.03 0.03 38 1011.9
20260905005854 75 212 3.0 8.0 0.00 0.03 0.03 38 1011.9
20260905005753 75 225 3.0 8.0 0.00 0.03 0.03 38 1011.9
20260905005650 75 262 3.0 8.0 0.00 0.03 0.03 38 1011.9
20260905005634 75 238 3.0 8.0 0.00 0.03 0.03 38 1011.9
20260905005548 75 250 3.0 8.0 0.00 0.03 0.03 37 1011.9
20260905005448 75 226 3.0 8.0 0.00 0.03 0.03 37 1011.8
20260905005348 76 226 2.0 7.0 0.00 0.03 0.03 37 1011.8
20260905005247 76 240 2.0 7.0 0.00 0.03 0.03 37 1011.9
20260905005149 76 239 2.0 7.0 0.00 0.03 0.03 38 1011.8
20260905005134 76 230 2.0 7.0 0.00 0.03 0.03 38 1011.8
20260905005045 76 168 2.0 7.0 0.00 0.03 0.03 37 1011.8
20260905004945 76 168 2.0 7.0 0.00 0.03 0.03 36 1011.8
20260905004844 76 267 3.0 7.0 0.00 0.03 0.03 37 1011.9
20260905004741 76 260 3.0 8.0 0.00 0.03 0.03 37 1011.9
20260905004636 76 256 3.0 8.0 0.00 0.03 0.03 37 1011.9
20260905004535 76 243 3.0 8.0 0.00 0.03 0.03 36 1011.8
20260905004436 76 240 2.0 8.0 0.00 0.03 0.03 36 1011.8
20260905004356 76 232 3.0 8.0 0.00 0.03 0.03 36 1011.8
20260905004335 76 208 3.0 8.0 0.00 0.03 0.03 36 1011.9
20260905004246 76 231 3.0 8.0 0.00 0.03 0.03 36 1011.9
20260905004130 76 246 3.0 8.0 0.00 0.03 0.03 36 1011.8
20260905004029 76 229 3.0 8.0 0.00 0.03 0.03 36 1011.8
20260905003929 76 250 3.0 8.0 0.00 0.03 0.03 36 1011.8
20260905003830 76 249 2.0 6.0 0.00 0.03 0.03 35 1011.8
20260905003634 76 233 2.0 5.0 0.00 0.03 0.03 36 1011.8
20260905003626 76 193 2.0 5.0 0.00 0.03 0.03 36 1011.8
20260905003524 76 235 2.0 5.0 0.00 0.03 0.03 36 1011.8
20260905003424 76 239 1.0 5.0 0.00 0.03 0.03 35 1011.8
20260905003323 76 233 1.0 5.0 0.00 0.03 0.03 35 1011.8
20260905003224 76 243 1.0 5.0 0.00 0.03 0.03 34 1011.8
20260905003135 76 224 1.0 5.0 0.00 0.03 0.03 34 1011.9
20260905003125 76 224 1.0 4.0 0.00 0.03 0.03 35 1011.8
20260905003118 76 163 1.0 5.0 0.00 0.03 0.03 35 1011.8
20260905003013 76 225 1.0 5.0 0.00 0.03 0.03 36 1011.8
20260905002817 76 224 1.0 4.0 0.00 0.03 0.03 35 1011.8
20260905002746 76 224 1.0 4.0 0.00 0.03 0.03 36 1011.8
20260905002612 76 224 1.0 4.0 0.00 0.03 0.03 35 1011.8
20260905002512 76 232 1.0 4.0 0.00 0.03 0.03 35 1011.8
20260905002411 76 138 2.0 4.0 0.00 0.03 0.03 35 1011.9
20260905002312 76 155 2.0 8.0 0.00 0.03 0.03 35 1011.8
20260905002211 76 211 2.0 8.0 0.00 0.03 0.03 34 1011.9
20260905002133 76 211 2.0 8.0 0.00 0.03 0.03 34 1011.9
20260905002106 76 218 2.0 8.0 0.00 0.03 0.03 35 1011.9
20260905002006 76 149 3.0 8.0 0.00 0.03 0.03 34 1011.9
20260905001909 76 165 3.0 8.0 0.00 0.03 0.03 35 1011.9
20260905001806 76 231 3.0 8.0 0.00 0.03 0.03 34 1011.9
20260905001706 76 233 3.0 8.0 0.00 0.03 0.03 34 1011.9
20260905001633 76 233 3.0 8.0 0.00 0.03 0.03 34 1011.9
20260905001559 76 233 3.0 8.0 0.00 0.03 0.03 33 1011.9
20260905001459 76 270 3.0 8.0 0.00 0.03 0.03 33 1012.0
20260905001359 76 270 3.0 8.0 0.00 0.03 0.03 33 1012.0
20260905001300 76 255 3.0 8.0 0.00 0.03 0.03 33 1012.0
20260905001200 76 253 3.0 8.0 0.00 0.03 0.03 33 1012.0
20260905001133 76 255 3.0 8.0 0.00 0.03 0.03 33 1012.0
20260905001058 76 233 2.0 8.0 0.00 0.03 0.03 33 1012.0
20260905000958 76 188 2.0 8.0 0.00 0.03 0.03 33 1012.0
20260905000906 76 195 3.0 9.0 0.00 0.03 0.03 33 1012.0
20260905000857 76 240 3.0 8.0 0.00 0.03 0.03 34 1012.0
20260905000756 76 191 3.0 8.0 0.00 0.03 0.03 33 1012.0
20260905000745 76 188 3.0 9.0 0.00 0.03 0.03 33 1012.0
20260905000556 76 241 3.0 9.0 0.00 0.03 0.03 33 1012.1
20260905000455 76 238 3.0 10.0 0.00 0.03 0.03 35 1012.1
20260905000355 76 228 4.0 10.0 0.00 0.03 0.03 34 1012.0
20260905000255 76 132 4.0 10.0 0.00 0.03 0.03 34 1012.0
20260905000155 76 253 4.0 10.0 0.00 0.03 0.03 35 1012.1
20260905000133 76 253 4.0 10.0 0.00 0.03 0.03 34 1012.1
20260905000053 76 253 4.0 10.0 0.00 0.03 0.03 34 1012.1
20260904235954 76 221 4.0 10.0 0.00 0.03 0.03 33 1012.0
20260904235858 77 216 4.0 10.0 0.00 0.03 0.03 33 1012.0
20260904235853 77 218 4.0 10.0 0.00 0.03 0.03 33 1012.0
20260904235754 77 208 4.0 10.0 0.00 0.03 0.03 33 1012.0
20260904235743 77 229 4.0 10.0 0.00 0.03 0.03 33 1012.0
20260904235553 77 241 4.0 10.0 0.00 0.03 0.03 34 1012.0
20260904235452 77 248 4.0 10.0 0.00 0.03 0.03 35 1012.0
20260904235352 77 132 4.0 11.0 0.00 0.03 0.03 34 1012.0
20260904235251 77 240 5.0 11.0 0.00 0.03 0.03 36 1012.1
20260904235130 77 242 5.0 11.0 0.00 0.03 0.03 37 1012.1
20260904235051 77 212 5.0 11.0 0.00 0.03 0.03 36 1012.1
20260904234951 77 238 5.0 11.0 0.00 0.03 0.03 35 1012.0
20260904234846 77 241 5.0 11.0 0.00 0.03 0.03 33 1012.1
20260904234746 77 176 5.0 11.0 0.00 0.03 0.03 33 1012.1
20260904234646 77 225 4.0 11.0 0.00 0.03 0.03 33 1012.0
20260904234624 78 224 4.0 11.0 0.00 0.03 0.03 33 1012.0
20260904234546 78 205 4.0 11.0 0.00 0.03 0.03 33 1012.1
20260904234446 78 271 3.0 11.0 0.00 0.03 0.03 33 1012.1
20260904234343 78 233 2.0 8.0 0.00 0.03 0.03 34 1012.1
20260904234244 78 204 2.0 8.0 0.00 0.03 0.03 36 1012.1
20260904234145 78 174 2.0 8.0 0.00 0.03 0.03 36 1012.1
20260904234118 78 235 2.0 8.0 0.00 0.03 0.03 36 1012.1
20260904234042 78 229 3.0 9.0 0.00 0.03 0.03 37 1012.1
20260904233939 78 232 3.0 10.0 0.00 0.03 0.03 37 1012.1
20260904233835 78 228 2.0 10.0 0.00 0.03 0.03 37 1012.1
20260904233734 78 232 2.0 10.0 0.00 0.03 0.03 39 1012.2
20260904233612 78 211 2.0 10.0 0.00 0.03 0.03 40 1012.2
20260904233533 78 270 3.0 10.0 0.00 0.03 0.03 40 1012.2
20260904233434 78 274 3.0 10.0 0.00 0.03 0.03 41 1012.2
20260904233327 78 139 3.0 10.0 0.00 0.03 0.03 41 1012.2
20260904233228 78 219 3.0 10.0 0.00 0.03 0.03 40 1012.2
20260904233128 78 239 3.0 10.0 0.00 0.03 0.03 40 1012.2
20260904233107 78 217 2.0 10.0 0.00 0.03 0.03 40 1012.2
20260904233028 78 253 2.0 6.0 0.00 0.03 0.03 41 1012.2
20260904232927 78 241 2.0 6.0 0.00 0.03 0.03 42 1012.1
20260904232827 78 111 1.0 6.0 0.00 0.03 0.03 41 1012.2
20260904232822 78 228 2.0 6.0 0.00 0.03 0.03 41 1012.2
20260904232721 78 228 2.0 6.0 0.00 0.03 0.03 41 1012.1
20260904232712 78 228 2.0 6.0 0.00 0.03 0.03 41 1012.2
20260904232521 78 224 1.0 6.0 0.00 0.03 0.03 40 1012.2
20260904232421 79 239 1.0 6.0 0.00 0.03 0.03 40 1012.2
20260904232321 78 228 1.0 4.0 0.00 0.03 0.03 42 1012.2
20260904232315 79 228 1.0 4.0 0.00 0.03 0.03 42 1012.2
20260904232217 78 228 1.0 3.0 0.00 0.03 0.03 42 1012.2
20260904232209 78 228 1.0 4.0 0.00 0.03 0.03 42 1012.2
20260904232015 78 256 1.0 4.0 0.00 0.03 0.03 43 1012.2
20260904231914 78 179 1.0 4.0 0.00 0.03 0.03 42 1012.2
20260904231809 78 311 1.0 4.0 0.00 0.03 0.03 41 1012.2
20260904231710 78 310 2.0 4.0 0.00 0.03 0.03 41 1012.2
20260904231609 78 321 1.0 4.0 0.00 0.03 0.03 42 1012.3
20260904231548 78 315 1.0 4.0 0.00 0.03 0.03 42 1012.3
20260904231511 78 356 1.0 4.0 0.00 0.03 0.03 43 1012.2
20260904231409 78 355 2.0 4.0 0.00 0.03 0.03 43 1012.2
20260904231305 78 169 1.0 4.0 0.00 0.03 0.03 42 1012.3
20260904231205 78 221 2.0 5.0 0.00 0.03 0.03 42 1012.3
20260904231104 78 235 2.0 7.0 0.00 0.03 0.03 42 1012.3
20260904231041 78 217 2.0 7.0 0.00 0.03 0.03 42 1012.3
20260904231004 78 104 2.0 7.0 0.00 0.03 0.03 42 1012.3
20260904230905 78 238 3.0 7.0 0.00 0.03 0.03 42 1012.3
20260904230757 77 223 3.0 8.0 0.00 0.03 0.03 43 1012.4
20260904230658 77 150 3.0 8.0 0.00 0.03 0.03 43 1012.4
20260904230536 77 225 3.0 8.0 0.00 0.03 0.03 43 1012.4
20260904230458 77 224 4.0 8.0 0.00 0.03 0.03 43 1012.4
20260904230357 77 173 4.0 9.0 0.00 0.03 0.03 44 1012.4
20260904230253 77 243 4.0 9.0 0.00 0.03 0.03 43 1012.4
20260904230152 77 241 4.0 9.0 0.00 0.03 0.03 42 1012.4
20260904230053 77 231 4.0 9.0 0.00 0.03 0.03 42 1012.4
20260904230043 77 241 4.0 9.0 0.00 0.03 0.03 42 1012.4
20260904225952 77 252 4.0 9.0 0.00 0.03 0.03 42 1012.5
20260904225851 78 193 4.0 9.0 0.00 0.03 0.03 42 1012.4
20260904225745 78 239 3.0 9.0 0.00 0.03 0.03 42 1012.4
20260904225650 78 214 3.0 9.0 0.00 0.03 0.03 42 1012.4
20260904225545 78 231 3.0 9.0 0.00 0.03 0.03 42 1012.5
20260904225525 78 242 3.0 9.0 0.00 0.03 0.03 42 1012.5
20260904225446 78 232 3.0 9.0 0.00 0.03 0.03 43 1012.5
20260904225345 78 216 3.0 8.0 0.00 0.03 0.03 44 1012.4
20260904225242 78 208 3.0 8.0 0.00 0.03 0.03 44 1012.5
20260904225141 78 232 3.0 8.0 0.00 0.03 0.03 43 1012.4
20260904225040 78 200 3.0 8.0 0.00 0.03 0.03 44 1012.4
20260904225028 78 236 3.0 8.0 0.00 0.03 0.03 44 1012.4
20260904224940 78 355 3.0 8.0 0.00 0.03 0.03 43 1012.5
20260904224839 78 215 3.0 8.0 0.00 0.03 0.03 44 1012.4
20260904224737 78 243 2.0 8.0 0.00 0.03 0.03 43 1012.5
20260904224633 78 256 2.0 8.0 0.00 0.03 0.03 43 1012.5
20260904224534 78 229 2.0 7.0 0.00 0.03 0.03 42 1012.5
20260904224512 78 210 2.0 6.0 0.00 0.03 0.03 42 1012.5
20260904224433 78 212 2.0 6.0 0.00 0.03 0.03 42 1012.5
20260904224334 78 217 2.0 9.0 0.00 0.03 0.03 43 1012.5
20260904224234 78 215 2.0 9.0 0.00 0.03 0.03 43 1012.5
20260904224131 78 245 2.0 9.0 0.00 0.03 0.03 44 1012.5
20260904224029 78 236 3.0 14.0 0.00 0.03 0.03 43 1012.5
20260904224006 78 198 3.0 14.0 0.00 0.03 0.03 44 1012.5
20260904223930 78 250 3.0 14.0 0.00 0.03 0.03 45 1012.5
20260904223827 77 233 3.0 14.0 0.00 0.03 0.03 44 1012.5
20260904223725 77 269 3.0 14.0 0.00 0.03 0.03 44 1012.5
20260904223622 77 249 3.0 14.0 0.00 0.03 0.03 45 1012.6
20260904223522 77 250 3.0 14.0 0.00 0.03 0.03 43 1012.6
20260904223501 77 250 3.0 14.0 0.00 0.03 0.03 43 1012.6
20260904223421 78 235 3.0 14.0 0.00 0.03 0.03 44 1012.6
20260904223321 78 217 3.0 14.0 0.00 0.03 0.03 43 1012.7
20260904223220 78 211 3.0 8.0 0.00 0.03 0.03 42 1012.7
20260904223216 78 233 3.0 14.0 0.00 0.03 0.03 42 1012.6
20260904223115 78 150 3.0 14.0 0.00 0.03 0.03 42 1012.7
20260904223105 78 193 3.0 8.0 0.00 0.03 0.03 42 1012.7
20260904222916 78 197 3.0 8.0 0.00 0.03 0.03 42 1012.7
20260904222815 78 228 3.0 8.0 0.00 0.03 0.03 42 1012.6
20260904222715 78 132 3.0 8.0 0.00 0.03 0.03 42 1012.7
20260904222615 78 248 3.0 8.0 0.00 0.03 0.03 43 1012.7
20260904222513 78 249 3.0 8.0 0.00 0.03 0.03 42 1012.7
20260904222459 78 248 3.0 8.0 0.00 0.03 0.03 42 1012.7
20260904222411 78 235 3.0 8.0 0.00 0.03 0.03 41 1012.7
20260904222309 78 221 3.0 8.0 0.00 0.03 0.03 42 1012.7
20260904222205 78 181 3.0 8.0 0.00 0.03 0.03 41 1012.7
20260904222104 78 150 3.0 8.0 0.00 0.03 0.03 42 1012.7
20260904222005 78 146 3.0 8.0 0.00 0.03 0.03 42 1012.6
20260904221954 78 188 3.0 8.0 0.00 0.03 0.03 42 1012.6
20260904221905 79 231 2.0 8.0 0.00 0.03 0.03 42 1012.7
20260904221803 79 223 2.0 7.0 0.00 0.03 0.03 42 1012.7
20260904221700 79 110 2.0 6.0 0.00 0.03 0.03 42 1012.7
20260904221600 79 156 2.0 6.0 0.00 0.03 0.03 43 1012.7
20260904221505 79 194 2.0 6.0 0.00 0.03 0.03 43 1012.7
20260904221455 79 200 2.0 6.0 0.00 0.03 0.03 43 1012.7
20260904221400 79 225 2.0 6.0 0.00 0.03 0.03 43 1012.7
20260904221257 79 233 2.0 6.0 0.00 0.03 0.03 42 1012.7
20260904221152 79 262 3.0 7.0 0.00 0.03 0.03 43 1012.6
20260904221052 78 248 3.0 8.0 0.00 0.03 0.03 43 1012.7
20260904220957 78 135 3.0 8.0 0.00 0.03 0.03 43 1012.6
20260904220951 78 136 3.0 8.0 0.00 0.03 0.03 43 1012.6
20260904220852 78 119 3.0 8.0 0.00 0.03 0.03 44 1012.6
20260904220752 78 134 4.0 8.0 0.00 0.03 0.03 43 1012.6
20260904220709 77 238 4.0 8.0 0.00 0.03 0.03 44 1012.7
20260904220648 77 143 4.0 8.0 0.00 0.03 0.03 44 1012.7
20260904220603 77 161 4.0 8.0 0.00 0.03 0.03 43 1012.7
20260904220446 77 248 4.0 8.0 0.00 0.03 0.03 44 1012.7
20260904220345 77 236 4.0 8.0 0.00 0.03 0.03 44 1012.7
20260904220246 77 183 4.0 9.0 0.00 0.03 0.03 44 1012.7
20260904220142 77 117 4.0 10.0 0.00 0.03 0.03 45 1012.8
20260904220040 77 163 5.0 11.0 0.00 0.03 0.03 45 1012.7
20260904215949 77 160 5.0 11.0 0.00 0.03 0.03 44 1012.7
20260904215940 77 138 5.0 11.0 0.00 0.03 0.03 44 1012.7
20260904215839 77 197 5.0 11.0 0.00 0.03 0.03 45 1012.7
20260904215740 77 228 5.0 11.0 0.00 0.03 0.03 45 1012.7
20260904215635 77 236 5.0 11.0 0.00 0.03 0.03 45 1012.7
20260904215534 77 259 5.0 11.0 0.00 0.03 0.03 44 1012.7
20260904215449 77 195 5.0 11.0 0.00 0.03 0.03 44 1012.7
20260904215434 77 246 5.0 11.0 0.00 0.03 0.03 44 1012.7
20260904215334 77 260 4.0 11.0 0.00 0.03 0.03 44 1012.7
20260904215234 78 243 4.0 11.0 0.00 0.03 0.03 44 1012.7
20260904215128 78 245 3.0 11.0 0.00 0.03 0.03 44 1012.7
20260904215027 78 146 3.0 9.0 0.00 0.03 0.03 43 1012.7
20260904214949 78 143 2.0 9.0 0.00 0.03 0.03 44 1012.7
20260904214928 78 149 2.0 9.0 0.00 0.03 0.03 44 1012.7
20260904214828 78 187 2.0 7.0 0.00 0.03 0.03 45 1012.7
20260904214728 78 141 2.0 7.0 0.00 0.03 0.03 44 1012.7
20260904214708 78 125 1.0 6.0 0.00 0.03 0.03 46 1012.7
20260904214621 78 200 1.0 6.0 0.00 0.03 0.03 44 1012.7
20260904214557 78 142 1.0 6.0 0.00 0.03 0.03 44 1012.6
20260904214421 78 145 1.0 6.0 0.00 0.03 0.03 46 1012.7
20260904214322 78 241 1.0 6.0 0.00 0.03 0.03 45 1012.6
20260904214222 78 214 1.0 6.0 0.00 0.03 0.03 45 1012.7
20260904214118 78 191 1.0 6.0 0.00 0.03 0.03 46 1012.7
20260904214016 78 235 2.0 6.0 0.00 0.03 0.03 46 1012.7
20260904213946 78 225 2.0 6.0 0.00 0.03 0.03 46 1012.7
20260904213915 78 219 2.0 6.0 0.00 0.03 0.03 46 1012.7
20260904213816 78 232 2.0 7.0 0.00 0.03 0.03 46 1012.7
20260904213716 78 226 3.0 7.0 0.00 0.03 0.03 47 1012.8
20260904213610 78 228 2.0 8.0 0.00 0.03 0.03 47 1012.8
20260904213510 77 230 3.0 8.0 0.00 0.03 0.03 47 1012.8
20260904213447 77 229 3.0 8.0 0.00 0.03 0.03 47 1012.8
20260904213409 77 245 2.0 8.0 0.00 0.03 0.03 47 1012.8
20260904213310 77 266 2.0 8.0 0.00 0.03 0.03 46 1012.8
20260904213210 77 232 2.0 8.0 0.00 0.03 0.03 47 1012.7
20260904213103 77 291 2.0 8.0 0.00 0.03 0.03 47 1012.8
20260904213004 77 222 2.0 8.0 0.00 0.03 0.03 47 1012.7
20260904212944 77 256 2.0 8.0 0.00 0.03 0.03 47 1012.7
20260904212904 77 123 2.0 8.0 0.00 0.03 0.03 47 1012.8
20260904212804 77 207 2.0 8.0 0.00 0.03 0.03 47 1012.8
20260904212704 77 233 2.0 7.0 0.00 0.03 0.03 47 1012.7
20260904212602 77 271 2.0 6.0 0.00 0.03 0.03 48 1012.7
20260904212501 77 252 2.0 6.0 0.00 0.03 0.03 49 1012.7
20260904212445 77 210 2.0 6.0 0.00 0.03 0.03 49 1012.7
20260904212402 77 321 2.0 6.0 0.00 0.03 0.03 48 1012.7
20260904212300 77 345 2.0 6.0 0.00 0.03 0.03 49 1012.7
20260904212158 77 315 2.0 6.0 0.00 0.03 0.03 48 1012.7
20260904212051 77 40 2.0 6.0 0.00 0.03 0.03 47 1012.8
20260904211958 77 103 2.0 6.0 0.00 0.03 0.03 47 1012.8
20260904211948 77 70 2.0 6.0 0.00 0.03 0.03 47 1012.8
20260904211852 77 236 2.0 6.0 0.00 0.03 0.03 47 1012.8
20260904211751 78 215 2.0 6.0 0.00 0.03 0.03 47 1012.8
20260904211652 78 212 1.0 5.0 0.00 0.03 0.03 47 1012.8
20260904211549 77 102 1.0 5.0 0.00 0.03 0.03 48 1012.8
20260904211449 77 114 1.0 5.0 0.00 0.03 0.03 49 1012.8
20260904211347 76 138 1.0 4.0 0.00 0.03 0.03 49 1012.8
20260904211248 76 136 2.0 6.0 0.00 0.03 0.03 49 1012.8
20260904211148 76 217 2.0 6.0 0.00 0.03 0.03 49 1012.7
20260904211040 76 230 2.0 6.0 0.00 0.03 0.03 49 1012.7
20260904210945 76 286 3.0 7.0 0.00 0.03 0.03 50 1012.8
20260904210939 76 287 3.0 7.0 0.00 0.03 0.03 50 1012.8
20260904210840 76 308 3.0 7.0 0.00 0.03 0.03 50 1012.8
20260904210741 76 195 3.0 7.0 0.00 0.03 0.03 50 1012.8
20260904210708 75 146 4.0 7.0 0.00 0.03 0.03 51 1012.9
20260904210639 76 242 3.0 7.0 0.00 0.03 0.03 50 1012.8
20260904210533 75 250 4.0 7.0 0.00 0.03 0.03 51 1012.9
20260904210434 75 114 4.0 8.0 0.00 0.03 0.03 51 1012.9
20260904210335 75 153 4.0 8.0 0.00 0.03 0.03 50 1012.9
20260904210234 75 231 4.0 8.0 0.00 0.03 0.03 50 1012.9
20260904210132 75 232 3.0 8.0 0.00 0.03 0.03 49 1012.9
20260904210026 76 248 3.0 8.0 0.00 0.03 0.03 49 1012.9
20260904205944 76 221 3.0 8.0 0.00 0.03 0.03 49 1012.9
20260904205925 76 242 3.0 8.0 0.00 0.03 0.03 49 1012.9
20260904205826 76 253 3.0 8.0 0.00 0.03 0.03 48 1012.9
20260904205727 76 214 3.0 9.0 0.00 0.03 0.03 48 1012.8
20260904205658 77 259 2.0 9.0 0.00 0.03 0.03 47 1012.8
20260904205623 76 172 3.0 9.0 0.00 0.03 0.03 48 1012.8
20260904205549 77 234 3.0 9.0 0.00 0.03 0.03 47 1012.8
20260904205418 77 236 2.0 9.0 0.00 0.03 0.03 48 1012.8
20260904205317 77 139 2.0 9.0 0.00 0.03 0.03 47 1012.8
20260904205217 77 232 2.0 9.0 0.00 0.03 0.03 47 1012.8
20260904205117 78 238 2.0 9.0 0.00 0.03 0.03 46 1012.9
20260904204932 78 239 2.0 9.0 0.00 0.03 0.03 45 1012.9
20260904204914 79 195 2.0 9.0 0.00 0.03 0.03 45 1012.9
20260904204814 79 214 2.0 8.0 0.00 0.03 0.03 45 1012.8
20260904204714 79 235 2.0 6.0 0.00 0.03 0.03 46 1012.8
20260904204652 78 121 2.0 10.0 0.00 0.03 0.03 47 1012.8
20260904204612 79 226 2.0 6.0 0.00 0.03 0.03 46 1012.8
20260904204539 78 240 2.0 10.0 0.00 0.03 0.03 47 1012.8
20260904204405 78 138 2.0 10.0 0.00 0.03 0.03 47 1012.8
20260904204305 78 135 3.0 10.0 0.00 0.03 0.03 47 1012.8
20260904204206 77 20 3.0 10.0 0.00 0.03 0.03 47 1012.9
20260904204141 77 129 3.0 10.0 0.00 0.03 0.03 48 1012.9
20260904204105 77 175 3.0 10.0 0.00 0.03 0.03 48 1012.9
20260904203904 77 239 3.0 10.0 0.00 0.03 0.03 49 1012.9
20260904203800 76 143 3.0 10.0 0.00 0.03 0.03 49 1012.9
20260904203700 76 146 2.0 10.0 0.00 0.03 0.03 49 1012.9
20260904203559 76 143 2.0 10.0 0.00 0.03 0.03 49 1012.9
20260904203454 76 153 2.0 7.0 0.00 0.03 0.03 49 1012.9
20260904203414 76 108 2.0 7.0 0.00 0.03 0.03 49 1013.0
20260904203353 76 49 2.0 7.0 0.00 0.03 0.03 50 1013.0
20260904203255 76 238 2.0 7.0 0.00 0.03 0.03 50 1012.9
20260904203154 76 186 2.0 7.0 0.00 0.03 0.03 50 1012.9
20260904203134 76 43 2.0 6.0 0.00 0.03 0.03 50 1012.9
20260904203052 76 183 1.0 7.0 0.00 0.03 0.03 50 1012.9
20260904203019 76 206 2.0 6.0 0.00 0.03 0.03 50 1012.9
20260904202848 76 43 2.0 6.0 0.00 0.03 0.03 50 1012.9
20260904202747 76 146 2.0 6.0 0.00 0.03 0.03 51 1012.9
20260904202649 75 147 2.0 6.0 0.00 0.03 0.03 51 1012.9
20260904202548 75 146 2.0 6.0 0.00 0.03 0.03 50 1012.9
20260904202444 75 146 2.0 6.0 0.00 0.03 0.03 50 1012.9
20260904202403 75 146 2.0 6.0 0.00 0.03 0.03 50 1013.0
20260904202342 75 146 2.0 6.0 0.00 0.03 0.03 51 1013.0
20260904202242 75 148 2.0 6.0 0.00 0.03 0.03 51 1012.9
20260904202143 75 204 2.0 6.0 0.00 0.03 0.03 51 1012.9
20260904202041 75 252 2.0 6.0 0.00 0.03 0.03 51 1013.0
20260904201940 75 174 1.0 6.0 0.00 0.03 0.03 51 1012.9
20260904201905 75 215 1.0 5.0 0.00 0.03 0.03 51 1013.0
20260904201840 75 226 1.0 5.0 0.00 0.03 0.03 52 1013.0
20260904201740 75 284 2.0 5.0 0.00 0.03 0.03 52 1012.9
20260904201638 75 284 2.0 5.0 0.00 0.03 0.03 53 1013.0
20260904201536 75 285 2.0 6.0 0.00 0.03 0.03 53 1013.0
20260904201432 74 145 2.0 6.0 0.00 0.03 0.03 52 1013.0
20260904201354 74 148 2.0 6.0 0.00 0.03 0.03 52 1013.0
20260904201330 74 139 2.0 6.0 0.00 0.03 0.03 52 1013.0
20260904201230 74 148 2.0 6.0 0.00 0.03 0.03 53 1013.0
20260904201129 74 222 2.0 6.0 0.00 0.03 0.03 54 1013.0
20260904201107 75 243 2.0 6.0 0.00 0.03 0.03 53 1013.0
20260904201029 74 235 2.0 6.0 0.00 0.03 0.03 54 1013.0
20260904200958 74 226 2.0 6.0 0.00 0.03 0.03 53 1013.0
20260904200824 75 236 2.0 6.0 0.00 0.03 0.03 52 1013.0
20260904200724 75 228 2.0 6.0 0.00 0.03 0.03 52 1012.9
20260904200624 75 143 2.0 6.0 0.00 0.03 0.03 53 1013.0
20260904200523 75 248 1.0 6.0 0.00 0.03 0.03 53 1013.0
20260904200421 75 211 1.0 6.0 0.00 0.03 0.03 53 1013.0
20260904200338 75 255 1.0 6.0 0.00 0.03 0.03 53 1013.0
20260904200322 75 239 1.0 6.0 0.00 0.03 0.03 53 1013.0
20260904200222 75 232 1.0 6.0 0.00 0.03 0.03 54 1013.0
20260904200120 75 219 1.0 3.0 0.00 0.03 0.03 53 1013.0
20260904200018 75 215 1.0 3.0 0.00 0.03 0.03 53 1013.0
20260904195912 75 185 1.0 3.0 0.00 0.03 0.03 53 1013.0
20260904195833 75 280 1.0 3.0 0.00 0.03 0.03 54 1013.0
20260904195812 75 311 1.0 3.0 0.00 0.03 0.03 55 1013.0
20260904195712 74 332 1.0 3.0 0.00 0.03 0.03 55 1013.1
20260904195612 74 334 1.0 3.0 0.00 0.03 0.03 55 1013.1
20260904195511 75 335 1.0 3.0 0.00 0.03 0.03 54 1013.1
20260904195407 75 330 1.0 3.0 0.00 0.03 0.03 53 1013.0
20260904195326 75 330 1.0 3.0 0.00 0.03 0.03 54 1013.0
20260904195306 75 326 1.0 3.0 0.00 0.03 0.03 55 1013.1
20260904195206 75 328 1.0 3.0 0.00 0.03 0.03 55 1013.1
20260904195106 75 330 1.0 3.0 0.00 0.03 0.03 54 1013.1
20260904195005 75 321 1.0 3.0 0.00 0.03 0.03 54 1013.1
20260904194905 75 321 1.0 4.0 0.00 0.03 0.03 53 1013.1
20260904194833 75 321 1.0 5.0 0.00 0.03 0.03 53 1013.1
20260904194803 75 321 1.0 6.0 0.00 0.03 0.03 53 1013.1
20260904194704 75 321 1.0 6.0 0.00 0.03 0.03 52 1013.2
20260904194601 75 321 2.0 6.0 0.00 0.03 0.03 52 1013.1
20260904194459 75 321 2.0 6.0 0.00 0.03 0.03 52 1013.2
20260904194400 76 321 2.0 6.0 0.00 0.03 0.03 52 1013.2
20260904194314 76 321 2.0 6.0 0.00 0.03 0.03 52 1013.2
20260904194258 76 321 2.0 6.0 0.00 0.03 0.03 52 1013.2
20260904194158 75 228 2.0 6.0 0.00 0.03 0.03 53 1013.2
20260904194056 75 228 2.0 6.0 0.00 0.03 0.03 52 1013.3
20260904193953 75 228 2.0 6.0 0.00 0.03 0.03 53 1013.3
20260904193851 75 172 2.0 6.0 0.00 0.03 0.03 52 1013.3
20260904193811 75 193 1.0 5.0 0.00 0.03 0.03 52 1013.2
20260904193752 75 208 1.0 5.0 0.00 0.03 0.03 52 1013.2
20260904193653 76 219 1.0 7.0 0.00 0.03 0.03 52 1013.2
20260904193550 76 229 1.0 7.0 0.00 0.03 0.03 51 1013.3
20260904193447 76 221 1.0 7.0 0.00 0.03 0.03 54 1013.3
20260904193342 76 287 1.0 7.0 0.00 0.03 0.03 53 1013.3
20260904193303 76 287 1.0 7.0 0.00 0.03 0.03 54 1013.3
20260904193242 76 300 1.0 7.0 0.00 0.03 0.03 54 1013.3
20260904193145 76 298 1.0 7.0 0.00 0.03 0.03 53 1013.3
20260904193041 76 284 1.0 7.0 0.00 0.03 0.03 54 1013.3
20260904192941 76 284 1.0 7.0 0.00 0.03 0.03 53 1013.3
20260904192842 76 283 1.0 7.0 0.00 0.03 0.03 52 1013.3
20260904192757 76 283 1.0 7.0 0.00 0.03 0.03 52 1013.3
20260904192740 76 281 1.0 7.0 0.00 0.03 0.03 52 1013.3
20260904192637 76 212 1.0 5.0 0.00 0.03 0.03 51 1013.3
20260904192538 76 314 1.0 4.0 0.00 0.03 0.03 53 1013.3
20260904192435 76 29 1.0 4.0 0.00 0.03 0.03 52 1013.3
20260904192336 76 148 1.0 4.0 0.00 0.03 0.03 51 1013.3
20260904192252 76 212 1.0 4.0 0.00 0.03 0.03 53 1013.3
20260904192234 76 225 1.0 4.0 0.00 0.03 0.03 53 1013.3
20260904192132 75 229 1.0 6.0 0.00 0.03 0.03 52 1013.3
20260904192031 76 243 1.0 6.0 0.00 0.03 0.03 53 1013.3
20260904191930 76 219 1.0 6.0 0.00 0.03 0.03 53 1013.4
20260904191828 76 211 1.0 6.0 0.00 0.03 0.03 54 1013.4
20260904191728 75 211 2.0 6.0 0.00 0.03 0.03 55 1013.4
20260904191628 75 201 2.0 6.0 0.00 0.03 0.03 55 1013.4
20260904191526 75 148 2.0 6.0 0.00 0.03 0.03 55 1013.4
20260904191423 75 148 2.0 6.0 0.00 0.03 0.03 54 1013.4
20260904191317 75 205 2.0 6.0 0.00 0.03 0.03 54 1013.4
20260904191239 75 237 2.0 6.0 0.00 0.03 0.03 54 1013.4
20260904191218 75 238 2.0 6.0 0.00 0.03 0.03 54 1013.4
20260904191117 74 232 2.0 7.0 0.00 0.03 0.03 57 1013.4
20260904191018 74 257 2.0 7.0 0.00 0.03 0.03 57 1013.4
20260904190918 74 225 2.0 7.0 0.00 0.03 0.03 57 1013.4
20260904190812 74 210 2.0 7.0 0.00 0.03 0.03 56 1013.4
20260904190732 74 232 1.0 7.0 0.00 0.03 0.03 58 1013.4
20260904190713 74 311 1.0 7.0 0.00 0.03 0.03 58 1013.4
20260904190612 74 311 1.0 7.0 0.00 0.03 0.03 58 1013.4
20260904190511 74 222 1.0 7.0 0.00 0.03 0.03 59 1013.4
20260904190448 74 325 2.0 7.0 0.00 0.03 0.03 56 1013.4
20260904190411 74 342 2.0 7.0 0.00 0.03 0.03 57 1013.4
20260904190305 74 12 2.0 7.0 0.00 0.03 0.03 56 1013.4
20260904190206 75 314 1.0 7.0 0.00 0.03 0.03 56 1013.4
20260904190105 74 266 2.0 5.0 0.00 0.03 0.03 59 1013.5
20260904190006 74 154 2.0 5.0 0.00 0.03 0.03 60 1013.4
20260904185905 74 221 2.0 5.0 0.00 0.03 0.03 61 1013.4
20260904185800 73 239 2.0 5.0 0.00 0.03 0.03 60 1013.4
20260904185721 73 307 2.0 5.0 0.00 0.03 0.03 60 1013.4
20260904185701 73 307 3.0 8.0 0.00 0.03 0.03 60 1013.4
20260904185600 73 321 3.0 8.0 0.00 0.03 0.03 59 1013.5
20260904185500 73 52 3.0 8.0 0.00 0.03 0.03 58 1013.5
20260904185359 73 74 3.0 8.0 0.00 0.03 0.03 58 1013.5
20260904185257 73 72 3.0 8.0 0.00 0.03 0.03 58 1013.5
20260904185214 73 138 3.0 8.0 0.00 0.03 0.03 59 1013.5
20260904185159 73 158 3.0 8.0 0.00 0.03 0.03 59 1013.5
20260904185057 73 239 2.0 8.0 0.00 0.03 0.03 58 1013.5
20260904184955 74 136 2.0 8.0 0.00 0.03 0.03 58 1013.6
20260904184857 74 212 2.0 8.0 0.00 0.03 0.03 58 1013.6
20260904184747 74 217 2.0 8.0 0.00 0.03 0.03 58 1013.5
20260904184709 74 204 2.0 7.0 0.00 0.03 0.03 58 1013.5
20260904184648 74 208 2.0 7.0 0.00 0.03 0.03 58 1013.5
20260904184548 74 153 1.0 6.0 0.00 0.03 0.03 58 1013.6
20260904184448 74 131 1.0 6.0 0.00 0.03 0.03 58 1013.5
20260904184347 73 195 1.0 6.0 0.00 0.03 0.03 59 1013.6
20260904184248 73 149 2.0 6.0 0.00 0.03 0.03 58 1013.6
20260904184202 73 149 2.0 6.0 0.00 0.03 0.03 58 1013.6
20260904184147 73 149 2.0 6.0 0.00 0.03 0.03 58 1013.6
20260904184046 73 193 2.0 6.0 0.00 0.03 0.03 59 1013.6
20260904183943 73 193 2.0 6.0 0.00 0.03 0.03 59 1013.6
20260904183918 72 146 1.0 6.0 0.00 0.03 0.03 63 1013.6
20260904183842 72 146 1.0 6.0 0.00 0.03 0.03 62 1013.6
20260904183808 72 148 1.0 6.0 0.00 0.03 0.03 63 1013.6
20260904183635 71 146 1.0 6.0 0.00 0.03 0.03 63 1013.6
20260904183536 71 165 1.0 6.0 0.00 0.03 0.03 63 1013.7
20260904183436 71 228 1.0 6.0 0.00 0.03 0.03 62 1013.6
20260904183335 71 203 0.0 3.0 0.00 0.03 0.03 63 1013.6
20260904183229 71 163 0.0 2.0 0.00 0.03 0.03 62 1013.7
20260904183151 71 165 1.0 4.0 0.00 0.03 0.03 62 1013.7
20260904183129 71 253 1.0 4.0 0.00 0.03 0.03 62 1013.7
20260904183029 71 253 1.0 5.0 0.00 0.03 0.03 63 1013.7
20260904182930 71 243 1.0 6.0 0.00 0.03 0.03 64 1013.7
20260904182829 71 242 1.0 6.0 0.00 0.03 0.03 64 1013.7
20260904182728 71 242 1.0 6.0 0.00 0.03 0.03 64 1013.7
20260904182648 71 241 1.0 6.0 0.00 0.03 0.03 64 1013.6
20260904182633 72 176 1.0 6.0 0.00 0.03 0.03 62 1013.7
20260904182627 71 242 1.0 6.0 0.00 0.03 0.03 64 1013.6
20260904182528 71 240 1.0 6.0 0.00 0.03 0.03 63 1013.6
20260904182517 71 242 1.0 6.0 0.00 0.03 0.03 63 1013.7
20260904182323 71 173 1.0 6.0 0.00 0.03 0.03 64 1013.6
20260904182220 72 194 1.0 6.0 0.00 0.03 0.03 62 1013.6
20260904182120 72 231 1.0 6.0 0.00 0.03 0.03 62 1013.7
20260904182019 72 243 0.0 6.0 0.00 0.03 0.03 64 1013.6
20260904181920 72 233 0.0 2.0 0.00 0.03 0.03 64 1013.6
20260904181817 72 233 0.0 2.0 0.00 0.03 0.03 64 1013.6
20260904181712 72 232 1.0 3.0 0.00 0.03 0.03 63 1013.6
20260904181647 72 233 1.0 3.0 0.00 0.03 0.03 63 1013.6
20260904181611 72 232 1.0 3.0 0.00 0.03 0.03 63 1013.6
20260904181512 72 233 1.0 3.0 0.00 0.03 0.03 64 1013.6
20260904181411 72 232 1.0 3.0 0.00 0.03 0.03 64 1013.6
20260904181311 72 232 1.0 3.0 0.00 0.03 0.03 64 1013.6
20260904181210 72 233 2.0 3.0 0.00 0.03 0.03 64 1013.7
20260904181154 72 113 2.0 6.0 0.00 0.03 0.03 63 1013.6
20260904181148 72 232 2.0 3.0 0.00 0.03 0.03 64 1013.7
20260904181110 72 119 2.0 3.0 0.00 0.03 0.03 62 1013.6
20260904181026 72 118 2.0 4.0 0.00 0.03 0.03 62 1013.6
20260904180908 72 105 2.0 6.0 0.00 0.03 0.03 62 1013.7
20260904180805 72 130 2.0 6.0 0.00 0.03 0.03 61 1013.7
20260904180757 72 131 2.0 6.0 0.00 0.03 0.03 63 1013.6
20260904180602 72 201 2.0 6.0 0.00 0.03 0.03 63 1013.6
20260904180501 72 124 2.0 6.0 0.00 0.03 0.03 63 1013.6
20260904180402 72 103 2.0 6.0 0.00 0.03 0.03 63 1013.7
20260904180300 72 103 2.0 6.0 0.00 0.03 0.03 63 1013.7
20260904180145 71 142 2.0 6.0 0.00 0.03 0.03 65 1013.7
20260904180058 71 121 1.0 6.0 0.00 0.03 0.03 65 1013.7
20260904175957 71 145 1.0 6.0 0.00 0.03 0.03 66 1013.7
20260904175855 71 113 2.0 5.0 0.00 0.03 0.03 66 1013.7
20260904175753 70 245 2.0 6.0 0.00 0.03 0.03 65 1013.7
20260904175649 70 235 2.0 6.0 0.00 0.03 0.03 67 1013.7
20260904175548 70 155 2.0 6.0 0.00 0.03 0.03 67 1013.7
20260904175447 70 117 2.0 6.0 0.00 0.03 0.03 68 1013.7
20260904175347 69 150 2.0 6.0 0.00 0.03 0.03 68 1013.7
20260904175247 69 134 1.0 6.0 0.00 0.03 0.03 68 1013.8
20260904175150 69 226 1.0 6.0 0.00 0.03 0.03 68 1013.7
20260904175045 69 141 1.0 6.0 0.00 0.03 0.03 68 1013.8
20260904174943 69 142 1.0 6.0 0.00 0.03 0.03 68 1013.8
20260904174844 69 149 1.0 6.0 0.00 0.03 0.03 68 1013.8
20260904174741 69 205 1.0 5.0 0.00 0.03 0.03 68 1013.8
20260904174704 69 225 1.0 5.0 0.00 0.03 0.03 69 1013.8
20260904174644 69 224 1.0 5.0 0.00 0.03 0.03 69 1013.8
20260904174540 69 131 1.0 5.0 0.00 0.03 0.03 68 1013.8
20260904174440 69 131 1.0 5.0 0.00 0.03 0.03 68 1013.8
20260904174338 69 120 1.0 5.0 0.00 0.03 0.03 68 1013.8
20260904174235 69 120 1.0 5.0 0.00 0.03 0.03 68 1013.7
20260904174136 69 88 1.0 5.0 0.00 0.03 0.03 68 1013.7
20260904174034 69 165 1.0 5.0 0.00 0.03 0.03 68 1013.8
20260904173931 69 165 1.0 5.0 0.00 0.03 0.03 69 1013.8
20260904173832 69 158 1.0 4.0 0.00 0.03 0.03 69 1013.7
20260904173729 69 150 1.0 4.0 0.00 0.03 0.03 70 1013.8
20260904173644 68 160 1.0 3.0 0.00 0.03 0.03 72 1013.8
20260904173630 68 143 1.0 3.0 0.00 0.03 0.03 72 1013.8
20260904173528 68 191 1.0 3.0 0.00 0.03 0.03 73 1013.8
20260904173427 67 208 1.0 3.0 0.00 0.03 0.03 73 1013.8
20260904173325 67 208 1.0 3.0 0.00 0.03 0.03 72 1013.8
20260904173223 67 233 2.0 3.0 0.00 0.03 0.03 73 1013.8
20260904173142 67 233 2.0 3.0 0.00 0.03 0.03 72 1013.8
20260904173117 67 231 2.0 3.0 0.00 0.03 0.03 72 1013.7
20260904173018 66 223 2.0 4.0 0.00 0.03 0.03 74 1013.7
20260904172918 66 228 2.0 4.0 0.00 0.03 0.03 74 1013.7
20260904172817 66 232 2.0 4.0 0.00 0.03 0.03 74 1013.8
20260904172716 66 231 2.0 4.0 0.00 0.03 0.03 73 1013.7
20260904172640 66 208 2.0 5.0 0.00 0.03 0.03 73 1013.7
20260904172612 66 228 3.0 5.0 0.00 0.03 0.03 73 1013.7
20260904172511 66 207 3.0 5.0 0.00 0.03 0.03 73 1013.7
20260904172412 66 225 3.0 5.0 0.00 0.03 0.03 73 1013.7
20260904172311 66 221 3.0 5.0 0.00 0.03 0.03 73 1013.7
20260904172211 66 234 3.0 5.0 0.00 0.03 0.03 73 1013.6
20260904172144 66 231 2.0 5.0 0.00 0.03 0.03 73 1013.6
20260904172107 66 229 2.0 5.0 0.00 0.03 0.03 73 1013.7
20260904172006 66 235 2.0 5.0 0.00 0.03 0.03 73 1013.6
20260904171906 67 139 2.0 5.0 0.00 0.03 0.03 73 1013.6
20260904171806 67 212 2.0 5.0 0.00 0.03 0.03 72 1013.6
20260904171705 67 253 2.0 5.0 0.00 0.03 0.03 72 1013.6
20260904171641 67 193 2.0 5.0 0.00 0.03 0.03 72 1013.6
20260904171602 67 236 1.0 5.0 0.00 0.03 0.03 72 1013.6
20260904171501 67 243 1.0 5.0 0.00 0.03 0.03 73 1013.6